Time,TemperatureF,DewpointF,PressureIn,WindDirection,WindDirectionDegrees,WindSpeedMPH,WindSpeedGustMPH,Humidity,HourlyPrecipIn,Conditions,Clouds,dailyrainin,SoftwareType,DateUTC
2013-10-12 00:01:00,61.1,59.7,29.92,NW,326,0.0,0.0,95,0.00,,,0.00,Wunderground v.1.15,2013-10-12 04:01:00,
2013-10-12 00:02:00,61.1,59.7,29.92,NW,326,0.0,0.0,95,0.00,,,0.00,Wunderground v.1.15,2013-10-12 04:02:00,
2013-10-12 00:03:00,61.0,59.6,29.92,NW,326,0.0,0.0,95,0.00,,,0.00,Wunderground v.1.15,2013-10-12 04:03:00,
2013-10-12 00:04:00,61.0,59.6,29.92,NW,326,0.0,0.0,95,0.00,,,0.00,Wunderground v.1.15,2013-10-12 04:04:00,
2013-10-12 00:08:00,60.9,59.5,29.92,NW,326,0.0,0.0,95,0.00,,,0.00,Wunderground v.1.15,2013-10-12 04:08:00,
2013-10-12 00:09:00,60.8,59.4,29.92,NW,326,0.0,0.0,95,0.00,,,0.00,Wunderground v.1.15,2013-10-12 04:09:00,
2013-10-12 00:11:00,60.8,59.4,29.92,NW,326,0.0,0.0,95,0.00,,,0.00,Wunderground v.1.15,2013-10-12 04:11:00,
2013-10-12 00:14:00,60.7,59.3,29.92,NW,326,0.0,0.0,95,0.00,,,0.00,Wunderground v.1.15,2013-10-12 04:14:00,
2013-10-12 00:15:00,60.7,59.3,29.92,NW,326,0.0,0.0,95,0.00,,,0.00,Wunderground v.1.15,2013-10-12 04:15:00,
2013-10-12 00:17:00,60.6,59.2,29.92,NW,326,0.0,0.0,95,0.00,,,0.00,Wunderground v.1.15,2013-10-12 04:17:00,
2013-10-12 00:19:00,60.5,59.1,29.92,NW,326,0.0,0.0,95,0.00,,,0.00,Wunderground v.1.15,2013-10-12 04:19:00,
2013-10-12 00:23:00,60.5,59.4,29.92,NW,326,0.0,0.0,96,0.00,,,0.00,Wunderground v.1.15,2013-10-12 04:23:00,
2013-10-12 00:24:00,60.5,59.4,29.92,NW,326,0.0,0.0,96,0.00,,,0.00,Wunderground v.1.15,2013-10-12 04:24:00,
2013-10-12 00:25:00,60.5,59.4,29.92,NW,325,0.0,0.0,96,0.00,,,0.00,Wunderground v.1.15,2013-10-12 04:25:00,
2013-10-12 00:26:00,60.4,59.3,29.92,NW,325,0.0,0.0,96,0.00,,,0.00,Wunderground v.1.15,2013-10-12 04:26:00,
2013-10-12 00:27:00,60.4,59.3,29.92,NW,325,0.0,0.0,96,0.00,,,0.00,Wunderground v.1.15,2013-10-12 04:27:00,
2013-10-12 00:31:00,60.4,59.3,29.92,NW,325,0.0,0.0,96,0.00,,,0.00,Wunderground v.1.15,2013-10-12 04:31:00,
2013-10-12 00:33:00,60.4,59.3,29.92,NW,325,0.0,0.0,96,0.00,,,0.00,Wunderground v.1.15,2013-10-12 04:33:00,
2013-10-12 00:34:00,60.4,59.3,29.92,NW,325,0.0,0.0,96,0.00,,,0.00,Wunderground v.1.15,2013-10-12 04:34:00,
2013-10-12 00:36:00,60.4,59.3,29.92,NW,324,0.0,0.0,96,0.00,,,0.00,Wunderground v.1.15,2013-10-12 04:36:00,
2013-10-12 00:37:00,60.4,59.3,29.92,NW,324,0.0,0.0,96,0.00,,,0.00,Wunderground v.1.15,2013-10-12 04:37:00,
2013-10-12 00:39:00,60.4,59.3,29.92,NW,325,0.0,0.0,96,0.00,,,0.00,Wunderground v.1.15,2013-10-12 04:39:00,
2013-10-12 00:41:00,60.4,59.3,29.92,NW,325,0.0,0.0,96,0.00,,,0.00,Wunderground v.1.15,2013-10-12 04:41:00,
2013-10-12 00:42:00,60.3,59.2,29.92,NW,325,0.0,0.0,96,0.00,,,0.00,Wunderground v.1.15,2013-10-12 04:42:00,
2013-10-12 00:45:00,60.4,59.3,29.92,NW,325,0.0,0.0,96,0.00,,,0.00,Wunderground v.1.15,2013-10-12 04:45:00,
2013-10-12 00:46:00,60.4,59.3,29.92,NW,325,0.0,0.0,96,0.00,,,0.00,Wunderground v.1.15,2013-10-12 04:46:00,
2013-10-12 00:47:00,60.3,59.2,29.92,NW,325,0.0,0.0,96,0.00,,,0.00,Wunderground v.1.15,2013-10-12 04:47:00,
2013-10-12 00:50:00,60.3,59.2,29.92,NW,325,0.0,0.0,96,0.00,,,0.00,Wunderground v.1.15,2013-10-12 04:50:00,
2013-10-12 00:51:00,60.3,59.2,29.92,NW,325,0.0,0.0,96,0.00,,,0.00,Wunderground v.1.15,2013-10-12 04:51:00,
2013-10-12 00:52:00,60.4,59.3,29.92,NW,325,0.0,0.0,96,0.00,,,0.00,Wunderground v.1.15,2013-10-12 04:52:00,
2013-10-12 00:53:00,60.3,59.2,29.92,NW,325,0.0,0.0,96,0.00,,,0.00,Wunderground v.1.15,2013-10-12 04:53:00,
2013-10-12 00:55:00,60.4,59.3,29.92,NW,324,0.0,0.0,96,0.00,,,0.00,Wunderground v.1.15,2013-10-12 04:55:00,
2013-10-12 00:58:00,60.4,59.3,29.92,NW,325,0.0,0.0,96,0.00,,,0.00,Wunderground v.1.15,2013-10-12 04:58:00,
2013-10-12 00:59:00,60.4,59.3,29.92,NW,325,0.0,0.0,96,0.00,,,0.00,Wunderground v.1.15,2013-10-12 04:59:00,
2013-10-12 01:00:00,60.4,59.5,29.92,NW,324,0.0,0.0,97,0.00,,,0.00,Wunderground v.1.15,2013-10-12 05:00:00,
2013-10-12 01:04:00,60.5,59.6,29.92,SW,230,0.0,0.0,97,0.00,,,0.00,Wunderground v.1.15,2013-10-12 05:04:00,
2013-10-12 01:05:00,60.5,59.6,29.92,SW,230,0.0,0.0,97,0.00,,,0.00,Wunderground v.1.15,2013-10-12 05:05:00,
2013-10-12 01:08:00,60.5,59.6,29.92,SW,230,0.0,0.0,97,0.00,,,0.00,Wunderground v.1.15,2013-10-12 05:08:00,
2013-10-12 01:10:00,60.5,59.6,29.92,SW,229,0.0,0.0,97,0.00,,,0.00,Wunderground v.1.15,2013-10-12 05:10:00,
2013-10-12 01:12:00,60.5,59.6,29.92,SW,230,0.0,0.0,97,0.00,,,0.00,Wunderground v.1.15,2013-10-12 05:12:00,
2013-10-12 01:13:00,60.6,59.7,29.92,SW,229,0.0,0.0,97,0.00,,,0.00,Wunderground v.1.15,2013-10-12 05:13:00,
2013-10-12 01:16:00,60.6,59.7,29.92,WSW,256,0.0,1.0,97,0.00,,,0.00,Wunderground v.1.15,2013-10-12 05:16:00,
2013-10-12 01:18:00,60.7,59.8,29.92,WSW,256,0.0,1.0,97,0.00,,,0.00,Wunderground v.1.15,2013-10-12 05:18:00,
2013-10-12 01:20:00,60.7,59.8,29.92,WSW,256,0.0,0.0,97,0.00,,,0.00,Wunderground v.1.15,2013-10-12 05:20:00,
2013-10-12 01:21:00,60.7,59.8,29.92,NNW,347,1.0,1.0,97,0.00,,,0.00,Wunderground v.1.15,2013-10-12 05:21:00,
2013-10-12 01:22:00,60.7,59.8,29.92,NNW,347,0.0,1.0,97,0.00,,,0.00,Wunderground v.1.15,2013-10-12 05:22:00,
2013-10-12 01:24:00,60.7,59.8,29.92,NNW,347,0.0,1.0,97,0.00,,,0.00,Wunderground v.1.15,2013-10-12 05:24:00,
2013-10-12 01:26:00,60.8,59.9,29.92,NNW,347,0.0,1.0,97,0.00,,,0.00,Wunderground v.1.15,2013-10-12 05:26:00,
2013-10-12 01:30:00,60.9,60.0,29.92,North,355,0.0,0.0,97,0.00,,,0.00,Wunderground v.1.15,2013-10-12 05:30:00,
2013-10-12 01:31:00,60.9,60.0,29.92,North,355,0.0,0.0,97,0.00,,,0.00,Wunderground v.1.15,2013-10-12 05:31:00,
2013-10-12 01:32:00,60.9,60.0,29.92,North,355,0.0,0.0,97,0.00,,,0.00,Wunderground v.1.15,2013-10-12 05:32:00,
2013-10-12 01:33:00,60.9,60.0,29.92,North,355,0.0,0.0,97,0.00,,,0.00,Wunderground v.1.15,2013-10-12 05:33:00,
2013-10-12 01:36:00,61.0,59.9,29.92,North,355,0.0,0.0,96,0.00,,,0.00,Wunderground v.1.15,2013-10-12 05:36:00,
2013-10-12 01:37:00,61.0,59.9,29.92,North,355,0.0,0.0,96,0.00,,,0.00,Wunderground v.1.15,2013-10-12 05:37:00,
2013-10-12 01:38:00,61.0,59.9,29.92,North,355,0.0,0.0,96,0.00,,,0.00,Wunderground v.1.15,2013-10-12 05:38:00,
2013-10-12 01:39:00,61.1,60.0,29.92,North,356,0.0,0.0,96,0.00,,,0.00,Wunderground v.1.15,2013-10-12 05:39:00,
2013-10-12 01:40:00,61.1,60.0,29.92,North,355,0.0,0.0,96,0.00,,,0.00,Wunderground v.1.15,2013-10-12 05:40:00,
2013-10-12 01:42:00,61.1,60.0,29.92,North,355,0.0,0.0,96,0.00,,,0.00,Wunderground v.1.15,2013-10-12 05:42:00,
2013-10-12 01:43:00,61.1,60.0,29.92,NNW,328,1.0,1.0,96,0.00,,,0.00,Wunderground v.1.15,2013-10-12 05:43:00,
2013-10-12 01:46:00,61.2,60.1,29.92,NNW,329,0.0,1.0,96,0.00,,,0.00,Wunderground v.1.15,2013-10-12 05:46:00,
2013-10-12 01:47:00,61.2,60.1,29.92,NNW,328,0.0,1.0,96,0.00,,,0.00,Wunderground v.1.15,2013-10-12 05:47:00,
2013-10-12 01:50:00,61.2,60.1,29.92,NNW,329,0.0,0.0,96,0.00,,,0.00,Wunderground v.1.15,2013-10-12 05:50:00,
2013-10-12 01:52:00,61.3,60.2,29.92,NNW,329,0.0,0.0,96,0.00,,,0.00,Wunderground v.1.15,2013-10-12 05:52:00,
2013-10-12 01:53:00,61.2,60.1,29.92,NNW,328,0.0,0.0,96,0.00,,,0.00,Wunderground v.1.15,2013-10-12 05:53:00,
2013-10-12 01:56:00,61.3,60.2,29.92,NNW,329,0.0,0.0,96,0.00,,,0.00,Wunderground v.1.15,2013-10-12 05:56:00,
2013-10-12 01:57:00,61.3,60.2,29.92,NNW,329,0.0,0.0,96,0.00,,,0.00,Wunderground v.1.15,2013-10-12 05:57:00,
2013-10-12 01:58:00,61.3,60.2,29.92,NNW,329,0.0,0.0,96,0.00,,,0.00,Wunderground v.1.15,2013-10-12 05:58:00,
2013-10-12 02:01:00,61.3,60.2,29.92,NNW,329,0.0,0.0,96,0.00,,,0.00,Wunderground v.1.15,2013-10-12 06:01:00,
2013-10-12 02:02:00,61.3,60.2,29.92,NNW,329,0.0,0.0,96,0.00,,,0.00,Wunderground v.1.15,2013-10-12 06:02:00,
2013-10-12 02:03:00,61.3,60.2,29.92,NNW,329,0.0,0.0,96,0.00,,,0.00,Wunderground v.1.15,2013-10-12 06:03:00,
2013-10-12 02:06:00,61.4,60.2,29.92,NNW,328,0.0,1.0,96,0.00,,,0.00,Wunderground v.1.15,2013-10-12 06:06:00,
2013-10-12 02:07:00,61.4,60.2,29.92,NNW,329,0.0,1.0,96,0.00,,,0.00,Wunderground v.1.15,2013-10-12 06:07:00,
2013-10-12 02:08:00,61.4,60.2,29.92,NNW,328,0.0,1.0,96,0.00,,,0.00,Wunderground v.1.15,2013-10-12 06:08:00,
2013-10-12 02:11:00,61.4,60.2,29.92,NNW,328,0.0,0.0,96,0.00,,,0.00,Wunderground v.1.15,2013-10-12 06:11:00,
2013-10-12 02:12:00,61.4,60.2,29.92,NNW,329,0.0,0.0,96,0.00,,,0.00,Wunderground v.1.15,2013-10-12 06:12:00,
2013-10-12 02:13:00,61.4,60.2,29.92,NNW,328,0.0,0.0,96,0.00,,,0.00,Wunderground v.1.15,2013-10-12 06:13:00,
2013-10-12 02:14:00,61.4,60.0,29.91,NNW,328,0.0,0.0,95,0.00,,,0.00,Wunderground v.1.15,2013-10-12 06:14:00,
2013-10-12 02:16:00,61.4,60.0,29.92,NNW,329,0.0,0.0,95,0.00,,,0.00,Wunderground v.1.15,2013-10-12 06:16:00,
2013-10-12 02:17:00,61.4,60.0,29.92,NNW,329,0.0,0.0,95,0.00,,,0.00,Wunderground v.1.15,2013-10-12 06:17:00,
2013-10-12 02:18:00,61.4,60.0,29.92,NNW,328,0.0,0.0,95,0.00,,,0.00,Wunderground v.1.15,2013-10-12 06:18:00,
2013-10-12 02:19:00,61.4,60.0,29.92,NNW,328,0.0,0.0,95,0.00,,,0.00,Wunderground v.1.15,2013-10-12 06:19:00,
2013-10-12 02:22:00,61.4,60.0,29.92,NNW,329,0.0,0.0,95,0.00,,,0.00,Wunderground v.1.15,2013-10-12 06:22:00,
2013-10-12 02:23:00,61.5,60.1,29.92,NNW,328,0.0,0.0,95,0.00,,,0.00,Wunderground v.1.15,2013-10-12 06:23:00,
2013-10-12 02:24:00,61.5,60.1,29.92,NNW,329,0.0,0.0,95,0.00,,,0.00,Wunderground v.1.15,2013-10-12 06:24:00,
2013-10-12 02:27:00,61.5,60.1,29.92,NNW,330,0.0,1.0,95,0.00,,,0.00,Wunderground v.1.15,2013-10-12 06:27:00,
2013-10-12 02:29:00,61.5,60.1,29.92,NNW,332,0.0,1.0,95,0.00,,,0.00,Wunderground v.1.15,2013-10-12 06:29:00,
2013-10-12 02:33:00,61.5,60.1,29.92,NNW,332,0.0,0.0,95,0.00,,,0.00,Wunderground v.1.15,2013-10-12 06:33:00,
2013-10-12 02:34:00,61.5,60.1,29.92,NNW,332,0.0,0.0,95,0.00,,,0.00,Wunderground v.1.15,2013-10-12 06:34:00,
2013-10-12 02:35:00,61.5,60.1,29.92,NNW,330,0.0,0.0,95,0.00,,,0.00,Wunderground v.1.15,2013-10-12 06:35:00,
2013-10-12 02:38:00,61.5,60.1,29.92,NNW,330,0.0,0.0,95,0.00,,,0.00,Wunderground v.1.15,2013-10-12 06:38:00,
2013-10-12 02:39:00,61.6,60.2,29.92,NNW,330,0.0,0.0,95,0.00,,,0.00,Wunderground v.1.15,2013-10-12 06:39:00,
2013-10-12 02:40:00,61.5,60.1,29.91,NNW,330,0.0,0.0,95,0.00,,,0.00,Wunderground v.1.15,2013-10-12 06:40:00,
2013-10-12 02:43:00,61.5,60.1,29.91,NNW,332,0.0,0.0,95,0.00,,,0.00,Wunderground v.1.15,2013-10-12 06:43:00,
2013-10-12 02:44:00,61.6,60.2,29.91,NNW,330,0.0,0.0,95,0.00,,,0.00,Wunderground v.1.15,2013-10-12 06:44:00,
2013-10-12 02:45:00,61.5,60.1,29.91,NNW,330,0.0,0.0,95,0.00,,,0.00,Wunderground v.1.15,2013-10-12 06:45:00,
2013-10-12 02:46:00,61.5,60.1,29.91,NNW,330,0.0,0.0,95,0.00,,,0.00,Wunderground v.1.15,2013-10-12 06:46:00,
2013-10-12 02:48:00,61.6,60.2,29.91,NNW,330,0.0,0.0,95,0.00,,,0.00,Wunderground v.1.15,2013-10-12 06:48:00,
2013-10-12 02:49:00,61.5,60.1,29.91,NNW,330,0.0,0.0,95,0.00,,,0.00,Wunderground v.1.15,2013-10-12 06:49:00,
2013-10-12 02:50:00,61.5,60.1,29.91,NNW,330,0.0,0.0,95,0.00,,,0.00,Wunderground v.1.15,2013-10-12 06:50:00,
2013-10-12 02:51:00,61.5,60.1,29.91,NNW,330,0.0,0.0,95,0.00,,,0.00,Wunderground v.1.15,2013-10-12 06:51:00,
2013-10-12 02:53:00,61.5,60.1,29.91,NNW,330,0.0,0.0,95,0.00,,,0.00,Wunderground v.1.15,2013-10-12 06:53:00,
2013-10-12 02:55:00,61.5,60.1,29.91,NNW,330,0.0,0.0,95,0.00,,,0.00,Wunderground v.1.15,2013-10-12 06:55:00,
2013-10-12 02:57:00,61.6,60.2,29.91,NNW,332,0.0,0.0,95,0.00,,,0.00,Wunderground v.1.15,2013-10-12 06:57:00,
2013-10-12 02:58:00,61.6,60.2,29.91,NNW,330,0.0,0.0,95,0.00,,,0.00,Wunderground v.1.15,2013-10-12 06:58:00,
2013-10-12 03:00:00,61.5,60.1,29.91,NNW,330,0.0,0.0,95,0.00,,,0.00,Wunderground v.1.15,2013-10-12 07:00:00,
2013-10-12 03:01:00,61.6,60.2,29.91,NNW,330,0.0,0.0,95,0.00,,,0.00,Wunderground v.1.15,2013-10-12 07:01:00,
2013-10-12 03:03:00,61.6,60.2,29.91,NNW,330,0.0,1.0,95,0.00,,,0.00,Wunderground v.1.15,2013-10-12 07:03:00,
2013-10-12 03:04:00,61.5,60.1,29.91,NNW,330,0.0,1.0,95,0.00,,,0.00,Wunderground v.1.15,2013-10-12 07:04:00,
2013-10-12 03:05:00,61.6,60.2,29.91,NNW,330,0.0,1.0,95,0.00,,,0.00,Wunderground v.1.15,2013-10-12 07:05:00,
2013-10-12 03:06:00,61.6,60.2,29.91,NNW,332,0.0,1.0,95,0.00,,,0.00,Wunderground v.1.15,2013-10-12 07:06:00,
2013-10-12 03:09:00,61.5,60.1,29.91,NNW,330,0.0,1.0,95,0.00,,,0.00,Wunderground v.1.15,2013-10-12 07:09:00,
2013-10-12 03:10:00,61.5,60.1,29.91,NNW,330,0.0,0.0,95,0.00,,,0.00,Wunderground v.1.15,2013-10-12 07:10:00,
2013-10-12 03:11:00,61.5,60.1,29.91,NNW,330,0.0,0.0,95,0.00,,,0.00,Wunderground v.1.15,2013-10-12 07:11:00,
2013-10-12 03:12:00,61.5,60.1,29.91,NNW,330,0.0,0.0,95,0.00,,,0.00,Wunderground v.1.15,2013-10-12 07:12:00,
2013-10-12 03:14:00,61.5,60.1,29.91,NNW,330,0.0,0.0,95,0.00,,,0.00,Wunderground v.1.15,2013-10-12 07:14:00,
2013-10-12 03:15:00,61.5,60.1,29.91,NNW,330,0.0,0.0,95,0.00,,,0.00,Wunderground v.1.15,2013-10-12 07:15:00,
2013-10-12 03:16:00,61.5,60.1,29.91,NNW,330,0.0,0.0,95,0.00,,,0.00,Wunderground v.1.15,2013-10-12 07:16:00,
2013-10-12 03:17:00,61.5,60.1,29.91,NNW,330,0.0,0.0,95,0.00,,,0.00,Wunderground v.1.15,2013-10-12 07:17:00,
2013-10-12 03:19:00,61.5,60.1,29.91,NNW,330,0.0,0.0,95,0.00,,,0.00,Wunderground v.1.15,2013-10-12 07:19:00,
2013-10-12 03:20:00,61.5,60.1,29.91,NNW,330,0.0,0.0,95,0.00,,,0.00,Wunderground v.1.15,2013-10-12 07:20:00,
2013-10-12 03:21:00,61.5,60.1,29.91,NNW,330,0.0,0.0,95,0.00,,,0.00,Wunderground v.1.15,2013-10-12 07:21:00,
2013-10-12 03:22:00,61.5,60.1,29.91,NNW,330,0.0,0.0,95,0.00,,,0.00,Wunderground v.1.15,2013-10-12 07:22:00,
2013-10-12 03:24:00,61.5,60.1,29.91,NNW,332,0.0,0.0,95,0.00,,,0.00,Wunderground v.1.15,2013-10-12 07:24:00,
2013-10-12 03:26:00,61.5,60.1,29.91,NNW,332,0.0,0.0,95,0.00,,,0.00,Wunderground v.1.15,2013-10-12 07:26:00,
2013-10-12 03:27:00,61.6,60.2,29.91,NNW,330,0.0,1.0,95,0.00,,,0.00,Wunderground v.1.15,2013-10-12 07:27:00,
2013-10-12 03:29:00,61.5,60.1,29.91,NNW,330,0.0,1.0,95,0.00,,,0.00,Wunderground v.1.15,2013-10-12 07:29:00,
2013-10-12 03:31:00,61.6,60.2,29.91,NNW,330,0.0,1.0,95,0.00,,,0.00,Wunderground v.1.15,2013-10-12 07:31:00,
2013-10-12 03:32:00,61.5,60.1,29.91,NNW,330,0.0,1.0,95,0.00,,,0.00,Wunderground v.1.15,2013-10-12 07:32:00,
2013-10-12 03:34:00,61.6,60.2,29.91,NNW,330,0.0,1.0,95,0.00,,,0.00,Wunderground v.1.15,2013-10-12 07:34:00,
2013-10-12 03:36:00,61.6,60.2,29.91,NNW,330,0.0,1.0,95,0.00,,,0.00,Wunderground v.1.15,2013-10-12 07:36:00,
2013-10-12 03:37:00,61.6,60.2,29.91,NNW,330,0.0,1.0,95,0.00,,,0.00,Wunderground v.1.15,2013-10-12 07:37:00,
2013-10-12 03:38:00,61.6,60.2,29.91,NNW,330,0.0,1.0,95,0.00,,,0.00,Wunderground v.1.15,2013-10-12 07:38:00,
2013-10-12 03:39:00,61.6,60.2,29.91,NNW,330,0.0,1.0,95,0.00,,,0.00,Wunderground v.1.15,2013-10-12 07:39:00,
2013-10-12 03:41:00,61.6,60.2,29.91,NNW,330,0.0,0.0,95,0.00,,,0.00,Wunderground v.1.15,2013-10-12 07:41:00,
2013-10-12 03:42:00,61.6,60.2,29.91,NNW,330,0.0,0.0,95,0.00,,,0.00,Wunderground v.1.15,2013-10-12 07:42:00,
2013-10-12 03:43:00,61.6,60.2,29.91,NNW,330,0.0,0.0,95,0.00,,,0.00,Wunderground v.1.15,2013-10-12 07:43:00,
2013-10-12 03:44:00,61.6,60.2,29.91,NNW,330,0.0,0.0,95,0.00,,,0.00,Wunderground v.1.15,2013-10-12 07:44:00,
2013-10-12 03:46:00,61.6,60.2,29.91,NNW,330,0.0,0.0,95,0.00,,,0.00,Wunderground v.1.15,2013-10-12 07:46:00,
2013-10-12 03:47:00,61.6,60.2,29.91,NNW,330,0.0,0.0,95,0.00,,,0.00,Wunderground v.1.15,2013-10-12 07:47:00,
2013-10-12 03:48:00,61.6,60.2,29.91,NNW,330,0.0,0.0,95,0.00,,,0.00,Wunderground v.1.15,2013-10-12 07:48:00,
2013-10-12 03:50:00,61.6,60.2,29.91,NNW,338,0.0,0.0,95,0.00,,,0.00,Wunderground v.1.15,2013-10-12 07:50:00,
2013-10-12 03:51:00,61.6,60.2,29.91,NNW,338,0.0,1.0,95,0.00,,,0.00,Wunderground v.1.15,2013-10-12 07:51:00,
2013-10-12 03:52:00,61.6,60.2,29.91,NNW,338,0.0,1.0,95,0.00,,,0.00,Wunderground v.1.15,2013-10-12 07:52:00,
2013-10-12 03:53:00,61.6,60.2,29.91,NNW,338,0.0,1.0,95,0.00,,,0.00,Wunderground v.1.15,2013-10-12 07:53:00,
2013-10-12 03:54:00,61.6,60.2,29.91,NNW,338,0.0,1.0,95,0.00,,,0.00,Wunderground v.1.15,2013-10-12 07:54:00,
2013-10-12 03:55:00,61.6,60.2,29.91,NNW,338,0.0,1.0,95,0.00,,,0.00,Wunderground v.1.15,2013-10-12 07:55:00,
2013-10-12 03:57:00,61.6,60.2,29.91,NNW,338,0.0,1.0,95,0.00,,,0.00,Wunderground v.1.15,2013-10-12 07:57:00,
2013-10-12 03:59:00,61.6,60.2,29.91,NNW,338,0.0,1.0,95,0.00,,,0.00,Wunderground v.1.15,2013-10-12 07:59:00,
2013-10-12 04:00:00,61.6,60.2,29.91,NNW,338,0.0,0.0,95,0.00,,,0.00,Wunderground v.1.15,2013-10-12 08:00:00,
2013-10-12 04:02:00,61.6,60.2,29.91,NNW,338,0.0,1.0,95,0.00,,,0.00,Wunderground v.1.15,2013-10-12 08:02:00,
2013-10-12 04:04:00,61.6,60.2,29.91,NNW,338,0.0,1.0,95,0.00,,,0.00,Wunderground v.1.15,2013-10-12 08:04:00,
2013-10-12 04:05:00,61.6,60.2,29.91,NNW,338,0.0,1.0,95,0.00,,,0.00,Wunderground v.1.15,2013-10-12 08:05:00,
2013-10-12 04:07:00,61.6,60.2,29.91,NNW,337,0.0,1.0,95,0.00,,,0.00,Wunderground v.1.15,2013-10-12 08:07:00,
2013-10-12 04:08:00,61.6,60.2,29.91,NNW,338,0.0,1.0,95,0.00,,,0.00,Wunderground v.1.15,2013-10-12 08:08:00,
2013-10-12 04:09:00,61.6,60.2,29.91,NNW,335,1.0,2.0,95,0.00,,,0.00,Wunderground v.1.15,2013-10-12 08:09:00,
2013-10-12 04:10:00,61.6,60.2,29.91,NNW,334,0.0,0.0,95,0.00,,,0.00,Wunderground v.1.15,2013-10-12 08:10:00,
2013-10-12 04:11:00,61.6,60.2,29.91,NNW,334,0.0,0.0,95,0.00,,,0.00,Wunderground v.1.15,2013-10-12 08:11:00,
2013-10-12 04:12:00,61.6,60.2,29.91,NNW,330,1.0,1.0,95,0.00,,,0.00,Wunderground v.1.15,2013-10-12 08:12:00,
2013-10-12 04:13:00,61.6,60.2,29.91,NNW,330,0.0,1.0,95,0.00,,,0.00,Wunderground v.1.15,2013-10-12 08:13:00,
2013-10-12 04:14:00,61.7,60.3,29.91,NNW,330,0.0,1.0,95,0.00,,,0.00,Wunderground v.1.15,2013-10-12 08:14:00,
2013-10-12 04:15:00,61.7,60.3,29.91,NNW,330,0.0,1.0,95,0.00,,,0.00,Wunderground v.1.15,2013-10-12 08:15:00,
2013-10-12 04:16:00,61.7,60.3,29.91,NNW,333,1.0,1.0,95,0.00,,,0.00,Wunderground v.1.15,2013-10-12 08:16:00,
2013-10-12 04:17:00,61.7,60.3,29.91,NNW,333,1.0,1.0,95,0.00,,,0.00,Wunderground v.1.15,2013-10-12 08:17:00,
2013-10-12 04:18:00,61.7,60.3,29.91,NNW,333,0.0,1.0,95,0.00,,,0.00,Wunderground v.1.15,2013-10-12 08:18:00,
2013-10-12 04:19:00,61.7,60.3,29.91,NNW,333,0.0,1.0,95,0.00,,,0.00,Wunderground v.1.15,2013-10-12 08:19:00,
2013-10-12 04:20:00,61.7,60.3,29.91,NNW,333,0.0,0.0,95,0.00,,,0.00,Wunderground v.1.15,2013-10-12 08:20:00,
2013-10-12 04:21:00,61.7,60.3,29.91,NNW,333,0.0,0.0,95,0.00,,,0.00,Wunderground v.1.15,2013-10-12 08:21:00,
2013-10-12 04:22:00,61.7,60.3,29.91,NNW,333,0.0,1.0,95,0.00,,,0.00,Wunderground v.1.15,2013-10-12 08:22:00,
2013-10-12 04:23:00,61.7,60.3,29.91,NNW,333,0.0,1.0,95,0.00,,,0.00,Wunderground v.1.15,2013-10-12 08:23:00,
2013-10-12 04:24:00,61.7,60.3,29.91,NNW,333,0.0,1.0,95,0.00,,,0.00,Wunderground v.1.15,2013-10-12 08:24:00,
2013-10-12 04:26:00,61.7,60.3,29.91,NNW,333,1.0,1.0,95,0.00,,,0.00,Wunderground v.1.15,2013-10-12 08:26:00,
2013-10-12 04:28:00,61.7,60.3,29.91,North,357,0.0,1.0,95,0.00,,,0.00,Wunderground v.1.15,2013-10-12 08:28:00,
2013-10-12 04:29:00,61.7,60.3,29.91,North,356,0.0,1.0,95,0.00,,,0.00,Wunderground v.1.15,2013-10-12 08:29:00,
2013-10-12 04:31:00,61.7,60.3,29.91,NNW,347,0.0,1.0,95,0.00,,,0.00,Wunderground v.1.15,2013-10-12 08:31:00,
2013-10-12 04:33:00,61.7,60.3,29.91,NNW,347,0.0,1.0,95,0.00,,,0.00,Wunderground v.1.15,2013-10-12 08:33:00,
2013-10-12 04:34:00,61.7,60.3,29.91,NNW,347,0.0,1.0,95,0.00,,,0.00,Wunderground v.1.15,2013-10-12 08:34:00,
2013-10-12 04:36:00,61.7,60.3,29.91,NNW,347,0.0,1.0,95,0.00,,,0.00,Wunderground v.1.15,2013-10-12 08:36:00,
2013-10-12 04:37:00,61.7,60.3,29.91,NNW,347,0.0,1.0,95,0.00,,,0.00,Wunderground v.1.15,2013-10-12 08:37:00,
2013-10-12 04:38:00,61.7,60.3,29.91,North,350,0.0,1.0,95,0.00,,,0.00,Wunderground v.1.15,2013-10-12 08:38:00,
2013-10-12 04:39:00,61.7,60.3,29.91,North,349,0.0,1.0,95,0.00,,,0.00,Wunderground v.1.15,2013-10-12 08:39:00,
2013-10-12 04:41:00,61.7,60.3,29.91,North,349,0.0,0.0,95,0.00,,,0.00,Wunderground v.1.15,2013-10-12 08:41:00,
2013-10-12 04:42:00,61.7,60.3,29.91,North,349,0.0,0.0,95,0.00,,,0.00,Wunderground v.1.15,2013-10-12 08:42:00,
2013-10-12 04:43:00,61.7,60.3,29.91,NW,323,2.0,2.0,95,0.00,,,0.00,Wunderground v.1.15,2013-10-12 08:43:00,
2013-10-12 04:44:00,61.7,60.3,29.91,NW,326,0.0,2.0,95,0.00,,,0.00,Wunderground v.1.15,2013-10-12 08:44:00,
2013-10-12 04:46:00,61.7,60.0,29.91,ENE,68,0.0,2.0,94,0.00,,,0.00,Wunderground v.1.15,2013-10-12 08:46:00,
2013-10-12 04:47:00,61.7,60.0,29.91,ENE,68,0.0,2.0,94,0.00,,,0.00,Wunderground v.1.15,2013-10-12 08:47:00,
2013-10-12 04:48:00,61.7,60.0,29.91,ENE,68,0.0,2.0,94,0.00,,,0.00,Wunderground v.1.15,2013-10-12 08:48:00,
2013-10-12 04:49:00,61.7,60.0,29.91,ENE,68,0.0,2.0,94,0.00,,,0.00,Wunderground v.1.15,2013-10-12 08:49:00,
2013-10-12 04:51:00,61.7,60.0,29.91,NNW,333,0.0,1.0,94,0.00,,,0.00,Wunderground v.1.15,2013-10-12 08:51:00,
2013-10-12 04:52:00,61.7,60.0,29.91,NW,321,0.0,1.0,94,0.00,,,0.00,Wunderground v.1.15,2013-10-12 08:52:00,
2013-10-12 04:53:00,61.7,60.0,29.91,NW,321,0.0,1.0,94,0.00,,,0.00,Wunderground v.1.15,2013-10-12 08:53:00,
2013-10-12 04:55:00,61.7,60.0,29.91,NW,321,0.0,1.0,94,0.00,,,0.00,Wunderground v.1.15,2013-10-12 08:55:00,
2013-10-12 04:56:00,61.7,60.0,29.91,NW,321,0.0,1.0,94,0.00,,,0.00,Wunderground v.1.15,2013-10-12 08:56:00,
2013-10-12 04:57:00,61.7,60.0,29.91,NW,321,0.0,1.0,94,0.00,,,0.00,Wunderground v.1.15,2013-10-12 08:57:00,
2013-10-12 04:59:00,61.7,60.0,29.91,NW,321,0.0,1.0,94,0.00,,,0.00,Wunderground v.1.15,2013-10-12 08:59:00,
2013-10-12 05:00:00,61.7,60.0,29.91,NW,322,0.0,0.0,94,0.00,,,0.00,Wunderground v.1.15,2013-10-12 09:00:00,
2013-10-12 05:01:00,61.7,60.0,29.91,NW,322,0.0,1.0,94,0.00,,,0.00,Wunderground v.1.15,2013-10-12 09:01:00,
2013-10-12 05:02:00,61.7,60.0,29.91,NW,322,1.0,1.0,94,0.00,,,0.00,Wunderground v.1.15,2013-10-12 09:02:00,
2013-10-12 05:03:00,61.7,60.0,29.91,NW,322,0.0,1.0,94,0.00,,,0.00,Wunderground v.1.15,2013-10-12 09:03:00,
2013-10-12 05:05:00,61.7,60.0,29.92,NW,322,0.0,1.0,94,0.00,,,0.00,Wunderground v.1.15,2013-10-12 09:05:00,
2013-10-12 05:06:00,61.7,60.0,29.92,NW,321,0.0,1.0,94,0.00,,,0.00,Wunderground v.1.15,2013-10-12 09:06:00,
2013-10-12 05:07:00,61.7,60.0,29.92,NW,321,0.0,1.0,94,0.00,,,0.00,Wunderground v.1.15,2013-10-12 09:07:00,
2013-10-12 05:08:00,61.7,60.0,29.92,North,353,0.0,2.0,94,0.00,,,0.00,Wunderground v.1.15,2013-10-12 09:08:00,
2013-10-12 05:10:00,61.7,60.0,29.92,North,351,0.0,2.0,94,0.00,,,0.00,Wunderground v.1.15,2013-10-12 09:10:00,
2013-10-12 05:11:00,61.7,60.0,29.92,North,351,0.0,1.0,94,0.00,,,0.00,Wunderground v.1.15,2013-10-12 09:11:00,
2013-10-12 05:12:00,61.7,60.0,29.92,North,352,0.0,1.0,94,0.00,,,0.00,Wunderground v.1.15,2013-10-12 09:12:00,
2013-10-12 05:13:00,61.7,60.0,29.92,WNW,289,0.0,1.0,94,0.00,,,0.00,Wunderground v.1.15,2013-10-12 09:13:00,
2013-10-12 05:14:00,61.7,60.0,29.92,WNW,290,0.0,1.0,94,0.00,,,0.00,Wunderground v.1.15,2013-10-12 09:14:00,
2013-10-12 05:15:00,61.8,60.1,29.92,WNW,289,0.0,1.0,94,0.00,,,0.00,Wunderground v.1.15,2013-10-12 09:15:00,
2013-10-12 05:16:00,61.8,60.1,29.92,WNW,290,0.0,1.0,94,0.00,,,0.00,Wunderground v.1.15,2013-10-12 09:16:00,
2013-10-12 05:17:00,61.7,60.0,29.92,WNW,289,0.0,1.0,94,0.00,,,0.00,Wunderground v.1.15,2013-10-12 09:17:00,
2013-10-12 05:18:00,61.7,60.0,29.92,WNW,290,0.0,1.0,94,0.00,,,0.00,Wunderground v.1.15,2013-10-12 09:18:00,
2013-10-12 05:19:00,61.8,60.1,29.92,WNW,290,0.0,1.0,94,0.00,,,0.00,Wunderground v.1.15,2013-10-12 09:19:00,
2013-10-12 05:20:00,61.8,60.1,29.92,WNW,289,0.0,1.0,94,0.00,,,0.00,Wunderground v.1.15,2013-10-12 09:20:00,
2013-10-12 05:22:00,61.7,60.0,29.92,WNW,290,0.0,1.0,94,0.00,,,0.00,Wunderground v.1.15,2013-10-12 09:22:00,
2013-10-12 05:23:00,61.7,60.0,29.92,WNW,290,1.0,1.0,94,0.00,,,0.00,Wunderground v.1.15,2013-10-12 09:23:00,
2013-10-12 05:24:00,61.7,60.0,29.92,WNW,290,0.0,1.0,94,0.00,,,0.00,Wunderground v.1.15,2013-10-12 09:24:00,
2013-10-12 05:25:00,61.7,60.0,29.92,WNW,290,0.0,1.0,94,0.00,,,0.00,Wunderground v.1.15,2013-10-12 09:25:00,
2013-10-12 05:27:00,61.7,60.0,29.92,WNW,290,0.0,1.0,94,0.00,,,0.00,Wunderground v.1.15,2013-10-12 09:27:00,
2013-10-12 05:28:00,61.7,60.0,29.92,WNW,290,0.0,1.0,94,0.00,,,0.00,Wunderground v.1.15,2013-10-12 09:28:00,
2013-10-12 05:29:00,61.7,60.0,29.92,WNW,290,0.0,1.0,94,0.00,,,0.00,Wunderground v.1.15,2013-10-12 09:29:00,
2013-10-12 05:31:00,61.7,60.0,29.92,NW,322,1.0,2.0,94,0.00,,,0.00,Wunderground v.1.15,2013-10-12 09:31:00,
2013-10-12 05:32:00,61.7,60.0,29.92,NNW,340,0.0,2.0,94,0.00,,,0.00,Wunderground v.1.15,2013-10-12 09:32:00,
2013-10-12 05:33:00,61.7,60.0,29.92,NNW,340,0.0,2.0,94,0.00,,,0.00,Wunderground v.1.15,2013-10-12 09:33:00,
2013-10-12 05:34:00,61.7,60.0,29.92,NNW,340,0.0,2.0,94,0.00,,,0.00,Wunderground v.1.15,2013-10-12 09:34:00,
2013-10-12 05:36:00,61.7,60.0,29.92,NNW,336,0.0,2.0,94,0.00,,,0.00,Wunderground v.1.15,2013-10-12 09:36:00,
2013-10-12 05:37:00,61.7,60.0,29.92,NNW,336,1.0,2.0,94,0.00,,,0.00,Wunderground v.1.15,2013-10-12 09:37:00,
2013-10-12 05:38:00,61.7,60.0,29.93,NNW,338,0.0,2.0,94,0.00,,,0.00,Wunderground v.1.15,2013-10-12 09:38:00,
2013-10-12 05:39:00,61.7,60.0,29.93,NNW,338,0.0,2.0,94,0.00,,,0.00,Wunderground v.1.15,2013-10-12 09:39:00,
2013-10-12 05:41:00,61.7,60.0,29.93,NNW,345,0.0,1.0,94,0.00,,,0.00,Wunderground v.1.15,2013-10-12 09:41:00,
2013-10-12 05:42:00,61.7,60.0,29.93,NNW,344,0.0,1.0,94,0.00,,,0.00,Wunderground v.1.15,2013-10-12 09:42:00,
2013-10-12 05:44:00,61.7,60.0,29.93,NNW,344,0.0,1.0,94,0.00,,,0.00,Wunderground v.1.15,2013-10-12 09:44:00,
2013-10-12 05:46:00,61.7,60.0,29.93,NNW,345,0.0,1.0,94,0.00,,,0.00,Wunderground v.1.15,2013-10-12 09:46:00,
2013-10-12 05:47:00,61.7,60.0,29.93,NNW,344,1.0,1.0,94,0.00,,,0.00,Wunderground v.1.15,2013-10-12 09:47:00,
2013-10-12 05:49:00,61.7,60.0,29.93,NNW,330,1.0,2.0,94,0.00,,,0.00,Wunderground v.1.15,2013-10-12 09:49:00,
2013-10-12 05:51:00,61.7,60.0,29.93,NNW,332,0.0,1.0,94,0.00,,,0.00,Wunderground v.1.15,2013-10-12 09:51:00,
2013-10-12 05:52:00,61.7,60.0,29.93,NNW,332,0.0,1.0,94,0.00,,,0.00,Wunderground v.1.15,2013-10-12 09:52:00,
2013-10-12 05:54:00,61.7,60.0,29.93,NNW,332,0.0,1.0,94,0.00,,,0.00,Wunderground v.1.15,2013-10-12 09:54:00,
2013-10-12 05:55:00,61.7,60.0,29.93,NNW,332,0.0,1.0,94,0.00,,,0.00,Wunderground v.1.15,2013-10-12 09:55:00,
2013-10-12 05:56:00,61.7,60.0,29.93,NNW,336,1.0,2.0,94,0.00,,,0.00,Wunderground v.1.15,2013-10-12 09:56:00,
2013-10-12 05:57:00,61.6,59.9,29.93,West,266,0.0,2.0,94,0.00,,,0.00,Wunderground v.1.15,2013-10-12 09:57:00,
2013-10-12 05:58:00,61.7,60.0,29.93,West,267,1.0,2.0,94,0.00,,,0.00,Wunderground v.1.15,2013-10-12 09:58:00,
2013-10-12 05:59:00,61.7,60.0,29.93,WNW,298,1.0,2.0,94,0.00,,,0.00,Wunderground v.1.15,2013-10-12 09:59:00,
2013-10-12 06:00:00,61.6,59.9,29.93,NW,307,1.0,2.0,94,0.00,,,0.00,Wunderground v.1.15,2013-10-12 10:00:00,
2013-10-12 06:02:00,61.7,60.0,29.93,NW,304,0.0,1.0,94,0.00,,,0.00,Wunderground v.1.15,2013-10-12 10:02:00,
2013-10-12 06:03:00,61.6,59.9,29.93,NW,304,0.0,1.0,94,0.00,,,0.00,Wunderground v.1.15,2013-10-12 10:03:00,
2013-10-12 06:04:00,61.7,60.0,29.93,NNW,343,0.0,2.0,94,0.00,,,0.00,Wunderground v.1.15,2013-10-12 10:04:00,
2013-10-12 06:05:00,61.7,60.0,29.93,NNW,327,1.0,3.0,94,0.00,,,0.00,Wunderground v.1.15,2013-10-12 10:05:00,
2013-10-12 06:07:00,61.7,60.0,29.94,NNW,328,0.0,3.0,94,0.00,,,0.00,Wunderground v.1.15,2013-10-12 10:07:00,
2013-10-12 06:08:00,61.6,59.9,29.94,NNW,329,0.0,3.0,94,0.00,,,0.00,Wunderground v.1.15,2013-10-12 10:08:00,
2013-10-12 06:09:00,61.7,60.0,29.94,NNW,328,0.0,3.0,94,0.00,,,0.00,Wunderground v.1.15,2013-10-12 10:09:00,
2013-10-12 06:11:00,61.7,60.0,29.94,NNW,329,0.0,0.0,94,0.00,,,0.00,Wunderground v.1.15,2013-10-12 10:11:00,
2013-10-12 06:12:00,61.6,59.9,29.93,NNW,328,0.0,0.0,94,0.00,,,0.00,Wunderground v.1.15,2013-10-12 10:12:00,
2013-10-12 06:13:00,61.7,60.0,29.93,NNW,329,0.0,0.0,94,0.00,,,0.00,Wunderground v.1.15,2013-10-12 10:13:00,
2013-10-12 06:15:00,61.7,60.0,29.94,NNW,329,0.0,1.0,94,0.00,,,0.00,Wunderground v.1.15,2013-10-12 10:15:00,
2013-10-12 06:16:00,61.7,60.0,29.94,NNW,328,0.0,1.0,94,0.00,,,0.00,Wunderground v.1.15,2013-10-12 10:16:00,
2013-10-12 06:18:00,61.7,60.0,29.94,SSW,208,0.0,2.0,94,0.00,,,0.00,Wunderground v.1.15,2013-10-12 10:18:00,
2013-10-12 06:19:00,61.7,60.0,29.94,SSW,208,0.0,2.0,94,0.00,,,0.00,Wunderground v.1.15,2013-10-12 10:19:00,
2013-10-12 06:20:00,61.7,60.0,29.94,SSW,211,0.0,0.0,94,0.00,,,0.00,Wunderground v.1.15,2013-10-12 10:20:00,
2013-10-12 06:21:00,61.7,60.0,29.94,SSW,211,0.0,0.0,94,0.00,,,0.00,Wunderground v.1.15,2013-10-12 10:21:00,
2013-10-12 06:24:00,61.6,59.9,29.94,SSW,211,0.0,0.0,94,0.00,,,0.00,Wunderground v.1.15,2013-10-12 10:24:00,
2013-10-12 06:25:00,61.7,60.0,29.94,SSW,211,0.0,0.0,94,0.00,,,0.00,Wunderground v.1.15,2013-10-12 10:25:00,
2013-10-12 06:26:00,61.6,59.9,29.94,SSW,211,0.0,0.0,94,0.00,,,0.00,Wunderground v.1.15,2013-10-12 10:26:00,
2013-10-12 06:27:00,61.7,60.0,29.94,SSW,211,0.0,0.0,94,0.00,,,0.00,Wunderground v.1.15,2013-10-12 10:27:00,
2013-10-12 06:29:00,61.6,59.9,29.94,SSW,211,0.0,0.0,94,0.00,,,0.00,Wunderground v.1.15,2013-10-12 10:29:00,
2013-10-12 06:30:00,61.6,59.9,29.94,SSW,211,0.0,0.0,94,0.00,,,0.00,Wunderground v.1.15,2013-10-12 10:30:00,
2013-10-12 06:31:00,61.6,59.9,29.94,SSW,211,0.0,0.0,94,0.00,,,0.00,Wunderground v.1.15,2013-10-12 10:31:00,
2013-10-12 06:32:00,61.6,59.9,29.94,SSW,211,0.0,0.0,94,0.00,,,0.00,Wunderground v.1.15,2013-10-12 10:32:00,
2013-10-12 06:35:00,61.6,59.9,29.94,SSW,211,0.0,0.0,94,0.00,,,0.00,Wunderground v.1.15,2013-10-12 10:35:00,
2013-10-12 06:36:00,61.6,59.9,29.94,SSW,211,0.0,0.0,94,0.00,,,0.00,Wunderground v.1.15,2013-10-12 10:36:00,
2013-10-12 06:37:00,61.6,59.9,29.94,SSW,198,0.0,0.0,94,0.00,,,0.00,Wunderground v.1.15,2013-10-12 10:37:00,
2013-10-12 06:40:00,61.6,59.9,29.94,WNW,290,0.0,0.0,94,0.00,,,0.00,Wunderground v.1.15,2013-10-12 10:40:00,
2013-10-12 06:41:00,61.6,59.9,29.94,WNW,290,0.0,0.0,94,0.00,,,0.00,Wunderground v.1.15,2013-10-12 10:41:00,
2013-10-12 06:42:00,61.6,59.9,29.94,WNW,290,0.0,1.0,94,0.00,,,0.00,Wunderground v.1.15,2013-10-12 10:42:00,
2013-10-12 06:45:00,61.6,59.9,29.94,WNW,290,0.0,1.0,94,0.00,,,0.00,Wunderground v.1.15,2013-10-12 10:45:00,
2013-10-12 06:46:00,61.6,59.9,29.94,WNW,288,0.0,1.0,94,0.00,,,0.00,Wunderground v.1.15,2013-10-12 10:46:00,
2013-10-12 06:47:00,61.6,59.9,29.94,WNW,290,0.0,1.0,94,0.00,,,0.00,Wunderground v.1.15,2013-10-12 10:47:00,
2013-10-12 06:48:00,61.6,59.9,29.94,WNW,289,0.0,1.0,94,0.00,,,0.00,Wunderground v.1.15,2013-10-12 10:48:00,
2013-10-12 06:50:00,61.6,59.9,29.94,WNW,290,0.0,0.0,94,0.00,,,0.00,Wunderground v.1.15,2013-10-12 10:50:00,
2013-10-12 06:51:00,61.6,59.9,29.94,WNW,290,0.0,0.0,94,0.00,,,0.00,Wunderground v.1.15,2013-10-12 10:51:00,
2013-10-12 06:52:00,61.6,59.9,29.94,WNW,288,0.0,0.0,94,0.00,,,0.00,Wunderground v.1.15,2013-10-12 10:52:00,
2013-10-12 06:53:00,61.5,59.8,29.94,WNW,290,0.0,0.0,94,0.00,,,0.00,Wunderground v.1.15,2013-10-12 10:53:00,
2013-10-12 06:55:00,61.5,59.8,29.94,North,360,0.0,0.0,94,0.00,,,0.00,Wunderground v.1.15,2013-10-12 10:55:00,
2013-10-12 06:56:00,61.6,59.9,29.94,North,355,0.0,2.0,94,0.00,,,0.00,Wunderground v.1.15,2013-10-12 10:56:00,
2013-10-12 06:57:00,61.5,59.8,29.94,North,355,0.0,2.0,94,0.00,,,0.00,Wunderground v.1.15,2013-10-12 10:57:00,
2013-10-12 06:58:00,61.5,59.8,29.94,North,355,0.0,2.0,94,0.00,,,0.00,Wunderground v.1.15,2013-10-12 10:58:00,
2013-10-12 07:01:00,61.5,59.8,29.94,North,356,1.0,1.0,94,0.00,,,0.00,Wunderground v.1.15,2013-10-12 11:01:00,
2013-10-12 07:02:00,61.5,59.8,29.94,North,355,0.0,1.0,94,0.00,,,0.00,Wunderground v.1.15,2013-10-12 11:02:00,
2013-10-12 07:03:00,61.5,59.8,29.94,North,355,0.0,1.0,94,0.00,,,0.00,Wunderground v.1.15,2013-10-12 11:03:00,
2013-10-12 07:04:00,61.5,59.8,29.94,North,355,0.0,1.0,94,0.00,,,0.00,Wunderground v.1.15,2013-10-12 11:04:00,
2013-10-12 07:06:00,61.5,59.8,29.94,North,355,0.0,1.0,94,0.00,,,0.00,Wunderground v.1.15,2013-10-12 11:06:00,
2013-10-12 07:07:00,61.5,59.8,29.94,North,355,0.0,1.0,94,0.00,,,0.00,Wunderground v.1.15,2013-10-12 11:07:00,
2013-10-12 07:08:00,61.5,59.8,29.94,North,355,0.0,1.0,94,0.00,,,0.00,Wunderground v.1.15,2013-10-12 11:08:00,
2013-10-12 07:09:00,61.5,59.8,29.94,North,355,0.0,1.0,94,0.00,,,0.00,Wunderground v.1.15,2013-10-12 11:09:00,
2013-10-12 07:12:00,61.5,60.1,29.94,North,355,0.0,0.0,95,0.00,,,0.00,Wunderground v.1.15,2013-10-12 11:12:00,
2013-10-12 07:13:00,61.5,59.8,29.94,North,355,0.0,0.0,94,0.00,,,0.00,Wunderground v.1.15,2013-10-12 11:13:00,
2013-10-12 07:14:00,61.5,60.1,29.94,North,355,0.0,0.0,95,0.00,,,0.00,Wunderground v.1.15,2013-10-12 11:14:00,
2013-10-12 07:15:00,61.5,60.1,29.94,North,355,0.0,0.0,95,0.00,,,0.00,Wunderground v.1.15,2013-10-12 11:15:00,
2013-10-12 07:17:00,61.5,60.1,29.95,North,355,0.0,1.0,95,0.00,,,0.00,Wunderground v.1.15,2013-10-12 11:17:00,
2013-10-12 07:19:00,61.5,60.1,29.95,North,355,0.0,1.0,95,0.00,,,0.00,Wunderground v.1.15,2013-10-12 11:19:00,
2013-10-12 07:20:00,61.5,60.1,29.95,North,355,0.0,0.0,95,0.00,,,0.00,Wunderground v.1.15,2013-10-12 11:20:00,
2013-10-12 07:22:00,61.5,60.1,29.95,North,355,0.0,0.0,95,0.00,,,0.00,Wunderground v.1.15,2013-10-12 11:22:00,
2013-10-12 07:25:00,61.5,60.1,29.95,North,355,0.0,0.0,95,0.00,,,0.00,Wunderground v.1.15,2013-10-12 11:25:00,
2013-10-12 07:26:00,61.5,60.1,29.95,North,355,0.0,0.0,95,0.00,,,0.00,Wunderground v.1.15,2013-10-12 11:26:00,
2013-10-12 07:27:00,61.5,60.1,29.95,North,355,0.0,0.0,95,0.00,,,0.00,Wunderground v.1.15,2013-10-12 11:27:00,
2013-10-12 07:30:00,61.5,60.1,29.95,WSW,245,0.0,0.0,95,0.00,,,0.00,Wunderground v.1.15,2013-10-12 11:30:00,
2013-10-12 07:31:00,61.5,60.1,29.95,WSW,245,0.0,0.0,95,0.00,,,0.00,Wunderground v.1.15,2013-10-12 11:31:00,
2013-10-12 07:33:00,61.5,60.1,29.95,WSW,245,0.0,0.0,95,0.00,,,0.00,Wunderground v.1.15,2013-10-12 11:33:00,
2013-10-12 07:35:00,61.5,60.1,29.95,WSW,245,0.0,0.0,95,0.00,,,0.00,Wunderground v.1.15,2013-10-12 11:35:00,
2013-10-12 07:36:00,61.5,60.1,29.95,WSW,245,0.0,0.0,95,0.00,,,0.00,Wunderground v.1.15,2013-10-12 11:36:00,
2013-10-12 07:38:00,61.5,60.1,29.95,WSW,245,0.0,0.0,95,0.00,,,0.00,Wunderground v.1.15,2013-10-12 11:38:00,
2013-10-12 07:40:00,61.5,60.1,29.95,WSW,245,0.0,0.0,95,0.00,,,0.00,Wunderground v.1.15,2013-10-12 11:40:00,
2013-10-12 07:41:00,61.5,60.1,29.95,WSW,250,0.0,1.0,95,0.00,,,0.00,Wunderground v.1.15,2013-10-12 11:41:00,
2013-10-12 07:43:00,61.5,60.1,29.95,WSW,250,0.0,1.0,95,0.00,,,0.00,Wunderground v.1.15,2013-10-12 11:43:00,
2013-10-12 07:45:00,61.5,60.1,29.95,WSW,250,0.0,1.0,95,0.00,,,0.00,Wunderground v.1.15,2013-10-12 11:45:00,
2013-10-12 07:46:00,61.6,60.2,29.95,WNW,293,1.0,1.0,95,0.00,,,0.00,Wunderground v.1.15,2013-10-12 11:46:00,
2013-10-12 07:47:00,61.5,60.1,29.95,WNW,293,1.0,1.0,95,0.00,,,0.00,Wunderground v.1.15,2013-10-12 11:47:00,
2013-10-12 07:48:00,61.5,60.1,29.95,WNW,293,0.0,1.0,95,0.00,,,0.00,Wunderground v.1.15,2013-10-12 11:48:00,
2013-10-12 07:49:00,61.6,60.2,29.95,WNW,293,0.0,1.0,95,0.00,,,0.00,Wunderground v.1.15,2013-10-12 11:49:00,
2013-10-12 07:51:00,61.6,60.2,29.95,NNW,347,0.0,1.0,95,0.00,,,0.00,Wunderground v.1.15,2013-10-12 11:51:00,
2013-10-12 07:52:00,61.6,60.2,29.95,NNW,347,0.0,1.0,95,0.00,,,0.00,Wunderground v.1.15,2013-10-12 11:52:00,
2013-10-12 07:53:00,61.6,60.2,29.95,WSW,257,0.0,1.0,95,0.00,,,0.00,Wunderground v.1.15,2013-10-12 11:53:00,
2013-10-12 07:54:00,61.6,60.2,29.95,WSW,257,0.0,1.0,95,0.00,,,0.00,Wunderground v.1.15,2013-10-12 11:54:00,
2013-10-12 07:56:00,61.6,60.2,29.95,WSW,257,1.0,1.0,95,0.00,,,0.00,Wunderground v.1.15,2013-10-12 11:56:00,
2013-10-12 07:57:00,61.6,60.2,29.95,North,11,1.0,1.0,95,0.00,,,0.00,Wunderground v.1.15,2013-10-12 11:57:00,
2013-10-12 07:58:00,61.6,60.2,29.96,North,11,0.0,1.0,95,0.00,,,0.00,Wunderground v.1.15,2013-10-12 11:58:00,
2013-10-12 07:59:00,61.6,60.2,29.96,North,11,0.0,1.0,95,0.00,,,0.00,Wunderground v.1.15,2013-10-12 11:59:00,
2013-10-12 08:01:00,61.7,60.3,29.95,North,11,0.0,1.0,95,0.00,,,0.00,Wunderground v.1.15,2013-10-12 12:01:00,
2013-10-12 08:02:00,61.7,60.3,29.95,North,11,1.0,1.0,95,0.00,,,0.00,Wunderground v.1.15,2013-10-12 12:02:00,
2013-10-12 08:03:00,61.7,60.3,29.95,North,11,0.0,1.0,95,0.00,,,0.00,Wunderground v.1.15,2013-10-12 12:03:00,
2013-10-12 08:04:00,61.7,60.3,29.95,North,11,0.0,1.0,95,0.00,,,0.00,Wunderground v.1.15,2013-10-12 12:04:00,
2013-10-12 08:06:00,61.7,60.3,29.96,North,11,0.0,1.0,95,0.00,,,0.00,Wunderground v.1.15,2013-10-12 12:06:00,
2013-10-12 08:07:00,61.8,60.4,29.96,North,11,0.0,1.0,95,0.00,,,0.00,Wunderground v.1.15,2013-10-12 12:07:00,
2013-10-12 08:08:00,61.8,60.4,29.96,North,11,0.0,1.0,95,0.00,,,0.00,Wunderground v.1.15,2013-10-12 12:08:00,
2013-10-12 08:09:00,61.8,60.4,29.96,North,11,0.0,1.0,95,0.00,,,0.00,Wunderground v.1.15,2013-10-12 12:09:00,
2013-10-12 08:11:00,61.8,60.4,29.96,North,11,0.0,0.0,95,0.00,,,0.00,Wunderground v.1.15,2013-10-12 12:11:00,
2013-10-12 08:12:00,61.8,60.4,29.96,North,10,1.0,1.0,95,0.00,,,0.00,Wunderground v.1.15,2013-10-12 12:12:00,
2013-10-12 08:13:00,61.8,60.4,29.96,North,11,0.0,1.0,95,0.00,,,0.00,Wunderground v.1.15,2013-10-12 12:13:00,
2013-10-12 08:14:00,61.9,60.5,29.96,NNW,347,0.0,1.0,95,0.00,,,0.00,Wunderground v.1.15,2013-10-12 12:14:00,
2013-10-12 08:16:00,61.9,60.5,29.96,North,11,0.0,2.0,95,0.00,,,0.00,Wunderground v.1.15,2013-10-12 12:16:00,
2013-10-12 08:17:00,61.9,60.5,29.96,North,11,0.0,2.0,95,0.00,,,0.00,Wunderground v.1.15,2013-10-12 12:17:00,
2013-10-12 08:18:00,61.9,60.5,29.96,North,11,0.0,2.0,95,0.00,,,0.00,Wunderground v.1.15,2013-10-12 12:18:00,
2013-10-12 08:19:00,61.9,60.5,29.96,North,7,2.0,2.0,95,0.00,,,0.00,Wunderground v.1.15,2013-10-12 12:19:00,
2013-10-12 08:20:00,61.9,60.5,29.96,NNW,336,0.0,2.0,95,0.00,,,0.00,Wunderground v.1.15,2013-10-12 12:20:00,
2013-10-12 08:22:00,62.0,60.6,29.96,NNW,335,0.0,0.0,95,0.00,,,0.00,Wunderground v.1.15,2013-10-12 12:22:00,
2013-10-12 08:23:00,62.0,60.6,29.96,NNW,336,0.0,0.0,95,0.00,,,0.00,Wunderground v.1.15,2013-10-12 12:23:00,
2013-10-12 08:24:00,62.0,60.6,29.96,NNW,335,0.0,0.0,95,0.00,,,0.00,Wunderground v.1.15,2013-10-12 12:24:00,
2013-10-12 08:26:00,62.1,60.7,29.96,WSW,243,1.0,1.0,95,0.00,,,0.00,Wunderground v.1.15,2013-10-12 12:26:00,
2013-10-12 08:27:00,62.1,60.7,29.96,WSW,243,0.0,1.0,95,0.00,,,0.00,Wunderground v.1.15,2013-10-12 12:27:00,
2013-10-12 08:28:00,62.1,60.7,29.96,WSW,243,0.0,1.0,95,0.00,,,0.00,Wunderground v.1.15,2013-10-12 12:28:00,
2013-10-12 08:29:00,62.2,60.8,29.96,WSW,243,0.0,1.0,95,0.00,,,0.00,Wunderground v.1.15,2013-10-12 12:29:00,
2013-10-12 08:31:00,62.2,60.8,29.96,WSW,243,0.0,0.0,95,0.00,,,0.00,Wunderground v.1.15,2013-10-12 12:31:00,
2013-10-12 08:32:00,62.3,60.6,29.96,WSW,243,0.0,0.0,94,0.00,,,0.00,Wunderground v.1.15,2013-10-12 12:32:00,
2013-10-12 08:33:00,62.3,60.6,29.96,WSW,243,0.0,0.0,94,0.00,,,0.00,Wunderground v.1.15,2013-10-12 12:33:00,
2013-10-12 08:34:00,62.3,60.6,29.96,WSW,245,1.0,1.0,94,0.00,,,0.00,Wunderground v.1.15,2013-10-12 12:34:00,
2013-10-12 08:36:00,62.3,60.6,29.96,WSW,239,0.0,1.0,94,0.00,,,0.00,Wunderground v.1.15,2013-10-12 12:36:00,
2013-10-12 08:38:00,62.3,60.6,29.96,East,83,1.0,1.0,94,0.00,,,0.00,Wunderground v.1.15,2013-10-12 12:38:00,
2013-10-12 08:39:00,62.3,60.6,29.96,East,83,0.0,1.0,94,0.00,,,0.00,Wunderground v.1.15,2013-10-12 12:39:00,
2013-10-12 08:41:00,62.4,60.7,29.96,East,82,1.0,1.0,94,0.00,,,0.00,Wunderground v.1.15,2013-10-12 12:41:00,
2013-10-12 08:43:00,62.4,60.7,29.96,East,82,0.0,1.0,94,0.00,,,0.00,Wunderground v.1.15,2013-10-12 12:43:00,
2013-10-12 08:44:00,62.4,60.7,29.96,East,82,0.0,1.0,94,0.00,,,0.00,Wunderground v.1.15,2013-10-12 12:44:00,
2013-10-12 08:45:00,62.4,60.7,29.96,East,82,0.0,1.0,94,0.00,,,0.00,Wunderground v.1.15,2013-10-12 12:45:00,
2013-10-12 08:46:00,62.5,60.7,29.96,East,82,0.0,1.0,94,0.00,,,0.00,Wunderground v.1.15,2013-10-12 12:46:00,
2013-10-12 08:48:00,62.5,60.7,29.96,NW,315,0.0,2.0,94,0.00,,,0.00,Wunderground v.1.15,2013-10-12 12:48:00,
2013-10-12 08:49:00,62.5,60.7,29.96,WSW,247,1.0,2.0,94,0.00,,,0.00,Wunderground v.1.15,2013-10-12 12:49:00,
2013-10-12 08:50:00,62.5,60.7,29.96,WSW,248,0.0,1.0,94,0.00,,,0.00,Wunderground v.1.15,2013-10-12 12:50:00,
2013-10-12 08:52:00,62.5,60.7,29.97,WSW,248,0.0,1.0,94,0.00,,,0.00,Wunderground v.1.15,2013-10-12 12:52:00,
2013-10-12 08:54:00,62.6,60.8,29.97,North,7,0.0,3.0,94,0.00,,,0.00,Wunderground v.1.15,2013-10-12 12:54:00,
2013-10-12 08:55:00,62.6,60.8,29.97,North,7,0.0,3.0,94,0.00,,,0.00,Wunderground v.1.15,2013-10-12 12:55:00,
2013-10-12 08:57:00,62.6,60.8,29.97,SW,231,1.0,4.0,94,0.00,,,0.00,Wunderground v.1.15,2013-10-12 12:57:00,
2013-10-12 08:59:00,62.6,60.8,29.97,WSW,252,1.0,4.0,94,0.00,,,0.00,Wunderground v.1.15,2013-10-12 12:59:00,
2013-10-12 09:01:00,62.6,60.8,29.97,NNW,347,0.0,1.0,94,0.00,,,0.00,Wunderground v.1.15,2013-10-12 13:01:00,
2013-10-12 09:02:00,62.6,60.8,29.97,NNW,347,0.0,1.0,94,0.00,,,0.00,Wunderground v.1.15,2013-10-12 13:02:00,
2013-10-12 09:04:00,62.6,60.8,29.97,NNW,347,0.0,1.0,94,0.00,,,0.00,Wunderground v.1.15,2013-10-12 13:04:00,
2013-10-12 09:06:00,62.7,60.9,29.97,NNW,346,0.0,1.0,94,0.00,,,0.00,Wunderground v.1.15,2013-10-12 13:06:00,
2013-10-12 09:07:00,62.7,60.9,29.97,NNW,345,0.0,1.0,94,0.00,,,0.00,Wunderground v.1.15,2013-10-12 13:07:00,
2013-10-12 09:09:00,62.7,60.9,29.97,NNE,25,0.0,3.0,94,0.00,,,0.00,Wunderground v.1.15,2013-10-12 13:09:00,
2013-10-12 09:10:00,62.8,61.0,29.97,NNE,25,0.0,0.0,94,0.00,,,0.00,Wunderground v.1.15,2013-10-12 13:10:00,
2013-10-12 09:11:00,62.8,61.0,29.97,North,349,3.0,3.0,94,0.00,,,0.00,Wunderground v.1.15,2013-10-12 13:11:00,
2013-10-12 09:12:00,62.8,61.0,29.97,North,349,0.0,3.0,94,0.00,,,0.00,Wunderground v.1.15,2013-10-12 13:12:00,
2013-10-12 09:13:00,62.8,61.0,29.97,North,349,0.0,3.0,94,0.00,,,0.00,Wunderground v.1.15,2013-10-12 13:13:00,
2013-10-12 09:15:00,62.8,61.0,29.97,NNW,333,1.0,3.0,94,0.00,,,0.00,Wunderground v.1.15,2013-10-12 13:15:00,
2013-10-12 09:16:00,62.8,61.0,29.97,NNW,335,0.0,3.0,94,0.00,,,0.00,Wunderground v.1.15,2013-10-12 13:16:00,
2013-10-12 09:17:00,62.8,61.0,29.97,NNW,335,0.0,3.0,94,0.00,,,0.00,Wunderground v.1.15,2013-10-12 13:17:00,
2013-10-12 09:18:00,62.8,61.0,29.97,NNW,334,0.0,3.0,94,0.00,,,0.00,Wunderground v.1.15,2013-10-12 13:18:00,
2013-10-12 09:19:00,62.8,61.0,29.97,NNW,336,1.0,3.0,94,0.00,,,0.00,Wunderground v.1.15,2013-10-12 13:19:00,
2013-10-12 09:20:00,62.8,61.0,29.98,NNW,330,2.0,2.0,94,0.00,,,0.00,Wunderground v.1.15,2013-10-12 13:20:00,
2013-10-12 09:22:00,62.8,61.0,29.97,NNW,330,1.0,4.0,94,0.00,,,0.00,Wunderground v.1.15,2013-10-12 13:22:00,
2013-10-12 09:23:00,62.8,61.0,29.97,NNW,330,0.0,4.0,94,0.00,,,0.00,Wunderground v.1.15,2013-10-12 13:23:00,
2013-10-12 09:24:00,62.9,61.1,29.98,WNW,295,1.0,4.0,94,0.00,,,0.00,Wunderground v.1.15,2013-10-12 13:24:00,
2013-10-12 09:25:00,62.9,61.1,29.97,WNW,295,1.0,4.0,94,0.00,,,0.00,Wunderground v.1.15,2013-10-12 13:25:00,
2013-10-12 09:27:00,62.9,61.1,29.98,WNW,297,1.0,4.0,94,0.00,,,0.00,Wunderground v.1.15,2013-10-12 13:27:00,
2013-10-12 09:28:00,62.9,61.1,29.98,NNW,347,1.0,4.0,94,0.00,,,0.00,Wunderground v.1.15,2013-10-12 13:28:00,
2013-10-12 09:30:00,62.9,61.1,29.98,NNW,340,2.0,4.0,94,0.00,,,0.00,Wunderground v.1.15,2013-10-12 13:30:00,
2013-10-12 09:32:00,62.9,61.1,29.98,ENE,65,1.0,2.0,94,0.00,,,0.00,Wunderground v.1.15,2013-10-12 13:32:00,
2013-10-12 09:33:00,63.0,61.2,29.98,ENE,65,0.0,2.0,94,0.00,,,0.00,Wunderground v.1.15,2013-10-12 13:33:00,
2013-10-12 09:35:00,63.0,61.2,29.98,NNW,333,0.0,2.0,94,0.00,,,0.00,Wunderground v.1.15,2013-10-12 13:35:00,
2013-10-12 09:36:00,63.0,61.2,29.97,WNW,295,0.0,2.0,94,0.00,,,0.00,Wunderground v.1.15,2013-10-12 13:36:00,
2013-10-12 09:37:00,63.0,61.2,29.98,NW,312,0.0,2.0,94,0.00,,,0.00,Wunderground v.1.15,2013-10-12 13:37:00,
2013-10-12 09:38:00,63.0,61.2,29.98,NW,312,0.0,2.0,94,0.00,,,0.00,Wunderground v.1.15,2013-10-12 13:38:00,
2013-10-12 09:39:00,63.0,61.2,29.98,NW,312,0.0,2.0,94,0.00,,,0.00,Wunderground v.1.15,2013-10-12 13:39:00,
2013-10-12 09:40:00,63.1,61.3,29.98,NW,311,0.0,1.0,94,0.00,,,0.00,Wunderground v.1.15,2013-10-12 13:40:00,
2013-10-12 09:41:00,63.1,61.3,29.98,NW,312,1.0,1.0,94,0.00,,,0.00,Wunderground v.1.15,2013-10-12 13:41:00,
2013-10-12 09:42:00,63.1,61.3,29.97,NNW,338,0.0,1.0,94,0.00,,,0.00,Wunderground v.1.15,2013-10-12 13:42:00,
2013-10-12 09:43:00,63.2,61.4,29.97,WSW,245,2.0,2.0,94,0.00,,,0.00,Wunderground v.1.15,2013-10-12 13:43:00,
2013-10-12 09:44:00,63.2,61.1,29.97,SW,224,2.0,2.0,93,0.00,,,0.00,Wunderground v.1.15,2013-10-12 13:44:00,
2013-10-12 09:45:00,63.3,61.2,29.97,West,276,0.0,2.0,93,0.00,,,0.00,Wunderground v.1.15,2013-10-12 13:45:00,
2013-10-12 09:47:00,63.3,61.2,29.98,WSW,238,0.0,2.0,93,0.00,,,0.00,Wunderground v.1.15,2013-10-12 13:47:00,
2013-10-12 09:49:00,63.4,61.3,29.97,North,354,1.0,2.0,93,0.00,,,0.00,Wunderground v.1.15,2013-10-12 13:49:00,
2013-10-12 09:50:00,63.4,61.3,29.97,NNW,332,1.0,1.0,93,0.00,,,0.00,Wunderground v.1.15,2013-10-12 13:50:00,
2013-10-12 09:51:00,63.4,61.3,29.97,NNW,332,0.0,1.0,93,0.00,,,0.00,Wunderground v.1.15,2013-10-12 13:51:00,
2013-10-12 09:53:00,63.5,61.4,29.98,WSW,239,0.0,5.0,93,0.00,,,0.00,Wunderground v.1.15,2013-10-12 13:53:00,
2013-10-12 09:54:00,63.5,61.4,29.97,West,269,2.0,5.0,93,0.00,,,0.00,Wunderground v.1.15,2013-10-12 13:54:00,
2013-10-12 09:55:00,63.5,61.1,29.97,WSW,245,0.0,5.0,92,0.00,,,0.00,Wunderground v.1.15,2013-10-12 13:55:00,
2013-10-12 09:56:00,63.5,61.1,29.97,West,273,0.0,5.0,92,0.00,,,0.00,Wunderground v.1.15,2013-10-12 13:56:00,
2013-10-12 09:58:00,63.6,61.2,29.98,West,277,1.0,5.0,92,0.00,,,0.00,Wunderground v.1.15,2013-10-12 13:58:00,
2013-10-12 09:59:00,63.6,61.2,29.97,West,278,0.0,5.0,92,0.00,,,0.00,Wunderground v.1.15,2013-10-12 13:59:00,
2013-10-12 10:00:00,63.7,61.3,29.97,NNW,335,0.0,1.0,92,0.00,,,0.00,Wunderground v.1.15,2013-10-12 14:00:00,
2013-10-12 10:01:00,63.7,61.3,29.97,NNW,336,0.0,1.0,92,0.00,,,0.00,Wunderground v.1.15,2013-10-12 14:01:00,
2013-10-12 10:03:00,63.7,61.3,29.97,WSW,257,1.0,4.0,92,0.00,,,0.00,Wunderground v.1.15,2013-10-12 14:03:00,
2013-10-12 10:04:00,63.8,61.4,29.97,WSW,257,0.0,4.0,92,0.00,,,0.00,Wunderground v.1.15,2013-10-12 14:04:00,
2013-10-12 10:05:00,63.8,61.4,29.97,WNW,282,1.0,4.0,92,0.00,,,0.00,Wunderground v.1.15,2013-10-12 14:05:00,
2013-10-12 10:06:00,63.8,61.4,29.97,NNE,15,1.0,4.0,92,0.00,,,0.00,Wunderground v.1.15,2013-10-12 14:06:00,
2013-10-12 10:07:00,63.9,61.5,29.97,NNE,15,0.0,4.0,92,0.00,,,0.00,Wunderground v.1.15,2013-10-12 14:07:00,
2013-10-12 10:08:00,63.9,61.5,29.97,NNE,13,0.0,4.0,92,0.00,,,0.00,Wunderground v.1.15,2013-10-12 14:08:00,
2013-10-12 10:10:00,64.0,61.6,29.97,NNE,32,2.0,2.0,92,0.00,,,0.00,Wunderground v.1.15,2013-10-12 14:10:00,
2013-10-12 10:11:00,64.0,61.6,29.97,WSW,255,1.0,2.0,92,0.00,,,0.00,Wunderground v.1.15,2013-10-12 14:11:00,
2013-10-12 10:13:00,64.0,61.3,29.98,NNE,23,1.0,3.0,91,0.00,,,0.00,Wunderground v.1.15,2013-10-12 14:13:00,
2013-10-12 10:14:00,64.0,61.3,29.98,North,7,1.0,3.0,91,0.00,,,0.00,Wunderground v.1.15,2013-10-12 14:14:00,
2013-10-12 10:15:00,64.0,61.3,29.98,North,349,1.0,3.0,91,0.00,,,0.00,Wunderground v.1.15,2013-10-12 14:15:00,
2013-10-12 10:16:00,64.0,61.3,29.98,NW,321,0.0,3.0,91,0.00,,,0.00,Wunderground v.1.15,2013-10-12 14:16:00,
2013-10-12 10:18:00,64.0,61.3,29.98,NNE,31,2.0,3.0,91,0.00,,,0.00,Wunderground v.1.15,2013-10-12 14:18:00,
2013-10-12 10:20:00,64.0,61.3,29.98,NNW,335,0.0,1.0,91,0.00,,,0.00,Wunderground v.1.15,2013-10-12 14:20:00,
2013-10-12 10:21:00,64.1,61.4,29.98,NNW,335,0.0,1.0,91,0.00,,,0.00,Wunderground v.1.15,2013-10-12 14:21:00,
2013-10-12 10:22:00,64.1,61.4,29.98,NNW,335,0.0,1.0,91,0.00,,,0.00,Wunderground v.1.15,2013-10-12 14:22:00,
2013-10-12 10:23:00,64.1,61.4,29.98,NNW,334,0.0,1.0,91,0.00,,,0.00,Wunderground v.1.15,2013-10-12 14:23:00,
2013-10-12 10:25:00,64.2,61.5,29.98,SW,233,0.0,2.0,91,0.00,,,0.00,Wunderground v.1.15,2013-10-12 14:25:00,
2013-10-12 10:26:00,64.2,61.5,29.98,SW,233,0.0,2.0,91,0.00,,,0.00,Wunderground v.1.15,2013-10-12 14:26:00,
2013-10-12 10:27:00,64.3,61.6,29.98,NNE,13,2.0,2.0,91,0.00,,,0.00,Wunderground v.1.15,2013-10-12 14:27:00,
2013-10-12 10:29:00,64.3,61.6,29.98,NNE,27,0.0,4.0,91,0.00,,,0.00,Wunderground v.1.15,2013-10-12 14:29:00,
2013-10-12 10:30:00,64.4,61.7,29.98,North,6,1.0,2.0,91,0.00,,,0.00,Wunderground v.1.15,2013-10-12 14:30:00,
2013-10-12 10:31:00,64.4,61.7,29.98,North,11,1.0,2.0,91,0.00,,,0.00,Wunderground v.1.15,2013-10-12 14:31:00,
2013-10-12 10:32:00,64.5,61.8,29.98,SSW,193,0.0,2.0,91,0.00,,,0.00,Wunderground v.1.15,2013-10-12 14:32:00,
2013-10-12 10:34:00,64.5,61.8,29.98,North,354,0.0,3.0,91,0.00,,,0.00,Wunderground v.1.15,2013-10-12 14:34:00,
2013-10-12 10:35:00,64.6,61.9,29.98,WSW,243,1.0,3.0,91,0.00,,,0.00,Wunderground v.1.15,2013-10-12 14:35:00,
2013-10-12 10:36:00,64.6,61.9,29.98,NNW,332,1.0,3.0,91,0.00,,,0.00,Wunderground v.1.15,2013-10-12 14:36:00,
2013-10-12 10:37:00,64.6,61.9,29.98,NNE,22,1.0,3.0,91,0.00,,,0.00,Wunderground v.1.15,2013-10-12 14:37:00,
2013-10-12 10:38:00,64.6,61.9,29.98,NNE,21,1.0,3.0,91,0.00,,,0.00,Wunderground v.1.15,2013-10-12 14:38:00,
2013-10-12 10:39:00,64.7,62.0,29.98,NNE,22,0.0,3.0,91,0.00,,,0.00,Wunderground v.1.15,2013-10-12 14:39:00,
2013-10-12 10:40:00,64.7,62.0,29.98,NNE,22,1.0,1.0,91,0.00,,,0.00,Wunderground v.1.15,2013-10-12 14:40:00,
2013-10-12 10:42:00,64.7,61.7,29.98,NNE,22,0.0,1.0,90,0.00,,,0.00,Wunderground v.1.15,2013-10-12 14:42:00,
2013-10-12 10:43:00,64.7,61.7,29.98,NNE,22,1.0,1.0,90,0.00,,,0.00,Wunderground v.1.15,2013-10-12 14:43:00,
2013-10-12 10:44:00,64.8,61.8,29.98,North,1,0.0,3.0,90,0.00,,,0.00,Wunderground v.1.15,2013-10-12 14:44:00,
2013-10-12 10:45:00,64.8,61.8,29.98,NNW,345,1.0,3.0,90,0.00,,,0.00,Wunderground v.1.15,2013-10-12 14:45:00,
2013-10-12 10:47:00,64.8,61.8,29.98,NNW,346,0.0,3.0,90,0.00,,,0.00,Wunderground v.1.15,2013-10-12 14:47:00,
2013-10-12 10:48:00,64.9,61.9,29.98,North,6,0.0,3.0,90,0.00,,,0.00,Wunderground v.1.15,2013-10-12 14:48:00,
2013-10-12 10:49:00,64.9,61.9,29.98,WNW,303,0.0,3.0,90,0.00,,,0.00,Wunderground v.1.15,2013-10-12 14:49:00,
2013-10-12 10:50:00,64.9,61.9,29.98,NNE,25,1.0,1.0,90,0.00,,,0.00,Wunderground v.1.15,2013-10-12 14:50:00,
2013-10-12 10:51:00,64.9,61.9,29.98,NNE,26,1.0,1.0,90,0.00,,,0.00,Wunderground v.1.15,2013-10-12 14:51:00,
2013-10-12 10:52:00,64.9,61.9,29.98,NNW,335,0.0,1.0,90,0.00,,,0.00,Wunderground v.1.15,2013-10-12 14:52:00,
2013-10-12 10:53:00,65.0,62.0,29.98,NNW,336,0.0,1.0,90,0.00,,,0.00,Wunderground v.1.15,2013-10-12 14:53:00,
2013-10-12 11:11:00,65.3,62.3,29.99,NNE,27,2.0,2.0,90,0.00,,,0.00,Wunderground v.1.15,2013-10-12 15:11:00,
2013-10-12 11:12:00,65.3,62.0,29.98,NNE,20,1.0,2.0,89,0.00,,,0.00,Wunderground v.1.15,2013-10-12 15:12:00,
2013-10-12 11:16:00,65.4,62.1,29.98,NE,48,0.0,3.0,89,0.00,,,0.00,Wunderground v.1.15,2013-10-12 15:16:00,
2013-10-12 11:17:00,65.4,62.1,29.99,SW,216,2.0,6.0,89,0.00,,,0.00,Wunderground v.1.15,2013-10-12 15:17:00,
2013-10-12 11:18:00,65.3,62.0,29.99,WNW,283,1.0,6.0,89,0.00,,,0.00,Wunderground v.1.15,2013-10-12 15:18:00,
2013-10-12 11:21:00,65.4,62.1,29.98,ENE,76,0.0,1.0,89,0.00,,,0.00,Wunderground v.1.15,2013-10-12 15:21:00,
2013-10-12 11:22:00,65.4,62.1,29.98,ENE,77,1.0,1.0,89,0.00,,,0.00,Wunderground v.1.15,2013-10-12 15:22:00,
2013-10-12 11:25:00,65.5,62.2,29.98,WSW,239,1.0,3.0,89,0.00,,,0.00,Wunderground v.1.15,2013-10-12 15:25:00,
2013-10-12 11:26:00,65.6,62.3,29.98,SSW,211,1.0,3.0,89,0.00,,,0.00,Wunderground v.1.15,2013-10-12 15:26:00,
2013-10-12 11:27:00,65.6,62.3,29.98,WSW,239,1.0,3.0,89,0.00,,,0.00,Wunderground v.1.15,2013-10-12 15:27:00,
2013-10-12 11:30:00,65.7,62.4,29.99,NNE,30,1.0,1.0,89,0.00,,,0.00,Wunderground v.1.15,2013-10-12 15:30:00,
2013-10-12 11:32:00,65.6,62.3,29.99,NNE,27,0.0,1.0,89,0.00,,,0.00,Wunderground v.1.15,2013-10-12 15:32:00,
2013-10-12 11:34:00,65.7,62.4,29.99,NNE,29,1.0,2.0,89,0.00,,,0.00,Wunderground v.1.15,2013-10-12 15:34:00,
2013-10-12 11:35:00,65.8,62.5,29.99,NNE,27,0.0,2.0,89,0.00,,,0.00,Wunderground v.1.15,2013-10-12 15:35:00,
2013-10-12 11:37:00,65.8,62.5,29.99,North,11,0.0,2.0,89,0.00,,,0.00,Wunderground v.1.15,2013-10-12 15:37:00,
2013-10-12 11:38:00,65.8,62.5,29.99,NNE,18,2.0,2.0,89,0.00,,,0.00,Wunderground v.1.15,2013-10-12 15:38:00,
2013-10-12 11:39:00,65.8,62.5,29.99,North,11,0.0,4.0,89,0.00,,,0.00,Wunderground v.1.15,2013-10-12 15:39:00,
2013-10-12 11:40:00,65.8,62.5,29.99,North,9,0.0,1.0,89,0.00,,,0.00,Wunderground v.1.15,2013-10-12 15:40:00,
2013-10-12 11:42:00,65.7,62.4,29.99,WSW,255,0.0,2.0,89,0.00,,,0.00,Wunderground v.1.15,2013-10-12 15:42:00,
2013-10-12 11:43:00,65.8,62.5,29.99,NE,41,1.0,2.0,89,0.00,,,0.00,Wunderground v.1.15,2013-10-12 15:43:00,
2013-10-12 11:44:00,65.7,62.4,29.99,NNE,12,0.0,2.0,89,0.00,,,0.00,Wunderground v.1.15,2013-10-12 15:44:00,
2013-10-12 11:45:00,65.7,62.4,29.99,North,1,0.0,2.0,89,0.00,,,0.00,Wunderground v.1.15,2013-10-12 15:45:00,
2013-10-12 11:47:00,65.8,62.5,29.99,NNE,12,2.0,3.0,89,0.00,,,0.00,Wunderground v.1.15,2013-10-12 15:47:00,
2013-10-12 11:48:00,65.8,62.5,29.99,NNE,13,0.0,3.0,89,0.00,,,0.00,Wunderground v.1.15,2013-10-12 15:48:00,
2013-10-12 11:50:00,65.7,62.4,29.99,NNE,18,2.0,3.0,89,0.00,,,0.00,Wunderground v.1.15,2013-10-12 15:50:00,
2013-10-12 11:52:00,65.8,62.5,29.99,ENE,78,1.0,2.0,89,0.00,,,0.00,Wunderground v.1.15,2013-10-12 15:52:00,
2013-10-12 11:53:00,65.7,62.4,29.98,SW,225,2.0,3.0,89,0.00,,,0.00,Wunderground v.1.15,2013-10-12 15:53:00,
2013-10-12 11:55:00,65.8,62.5,29.98,North,355,1.0,3.0,89,0.00,,,0.00,Wunderground v.1.15,2013-10-12 15:55:00,
2013-10-12 11:56:00,65.9,62.6,29.98,WSW,255,0.0,3.0,89,0.00,,,0.00,Wunderground v.1.15,2013-10-12 15:56:00,
2013-10-12 11:57:00,65.9,62.6,29.98,WSW,254,1.0,3.0,89,0.00,,,0.00,Wunderground v.1.15,2013-10-12 15:57:00,
2013-10-12 11:58:00,65.9,62.6,29.98,SSW,193,0.0,3.0,89,0.00,,,0.00,Wunderground v.1.15,2013-10-12 15:58:00,
2013-10-12 12:01:00,66.1,62.8,29.98,North,355,0.0,2.0,89,0.00,,,0.00,Wunderground v.1.15,2013-10-12 16:01:00,
2013-10-12 12:02:00,66.2,62.9,29.99,NW,304,0.0,2.0,89,0.00,,,0.00,Wunderground v.1.15,2013-10-12 16:02:00,
2013-10-12 12:03:00,66.2,62.9,29.98,NW,304,0.0,2.0,89,0.00,,,0.00,Wunderground v.1.15,2013-10-12 16:03:00,
2013-10-12 12:04:00,66.3,63.0,29.98,NW,304,0.0,2.0,89,0.00,,,0.00,Wunderground v.1.15,2013-10-12 16:04:00,
2013-10-12 12:06:00,66.4,63.1,29.98,WNW,290,1.0,2.0,89,0.00,,,0.00,Wunderground v.1.15,2013-10-12 16:06:00,
2013-10-12 12:07:00,66.5,62.8,29.99,WNW,297,0.0,2.0,88,0.00,,,0.00,Wunderground v.1.15,2013-10-12 16:07:00,
2013-10-12 12:08:00,66.5,62.8,29.99,North,351,2.0,2.0,88,0.00,,,0.00,Wunderground v.1.15,2013-10-12 16:08:00,
2013-10-12 12:10:00,66.6,62.9,29.98,NW,308,0.0,1.0,88,0.00,,,0.00,Wunderground v.1.15,2013-10-12 16:10:00,
2013-10-12 12:11:00,66.6,62.9,29.98,North,349,1.0,2.0,88,0.00,,,0.00,Wunderground v.1.15,2013-10-12 16:11:00,
2013-10-12 12:12:00,66.6,62.9,29.98,NW,326,2.0,3.0,88,0.00,,,0.00,Wunderground v.1.15,2013-10-12 16:12:00,
2013-10-12 12:13:00,66.6,62.9,29.98,NNE,14,2.0,3.0,88,0.00,,,0.00,Wunderground v.1.15,2013-10-12 16:13:00,
2013-10-12 12:14:00,66.6,62.9,29.98,North,354,1.0,3.0,88,0.00,,,0.00,Wunderground v.1.15,2013-10-12 16:14:00,
2013-10-12 12:15:00,66.6,62.9,29.98,North,1,1.0,3.0,88,0.00,,,0.00,Wunderground v.1.15,2013-10-12 16:15:00,
2013-10-12 12:16:00,66.5,62.8,29.99,NNE,31,2.0,3.0,88,0.00,,,0.00,Wunderground v.1.15,2013-10-12 16:16:00,
2013-10-12 12:17:00,66.5,62.8,29.98,North,1,2.0,3.0,88,0.00,,,0.00,Wunderground v.1.15,2013-10-12 16:17:00,
2013-10-12 12:18:00,66.5,62.8,29.98,North,3,1.0,3.0,88,0.00,,,0.00,Wunderground v.1.15,2013-10-12 16:18:00,
2013-10-12 12:19:00,66.5,62.8,29.98,North,4,0.0,3.0,88,0.00,,,0.00,Wunderground v.1.15,2013-10-12 16:19:00,
2013-10-12 12:20:00,66.5,63.2,29.99,North,1,0.0,1.0,89,0.00,,,0.00,Wunderground v.1.15,2013-10-12 16:20:00,
2013-10-12 12:21:00,66.5,63.2,29.98,NW,323,0.0,2.0,89,0.00,,,0.00,Wunderground v.1.15,2013-10-12 16:21:00,
2013-10-12 12:22:00,66.5,63.2,29.98,NW,323,0.0,2.0,89,0.00,,,0.00,Wunderground v.1.15,2013-10-12 16:22:00,
2013-10-12 12:23:00,66.5,63.2,29.98,ENE,62,0.0,2.0,89,0.00,,,0.00,Wunderground v.1.15,2013-10-12 16:23:00,
2013-10-12 12:24:00,66.5,63.2,29.98,ENE,63,1.0,2.0,89,0.00,,,0.00,Wunderground v.1.15,2013-10-12 16:24:00,
2013-10-12 12:25:00,66.6,63.3,29.98,North,4,1.0,2.0,89,0.00,,,0.00,Wunderground v.1.15,2013-10-12 16:25:00,
2013-10-12 12:26:00,66.6,63.3,29.98,SW,226,1.0,3.0,89,0.00,,,0.00,Wunderground v.1.15,2013-10-12 16:26:00,
2013-10-12 12:28:00,66.7,63.0,29.98,SSW,211,0.0,3.0,88,0.00,,,0.00,Wunderground v.1.15,2013-10-12 16:28:00,
2013-10-12 12:29:00,66.7,63.0,29.98,North,356,2.0,3.0,88,0.00,,,0.00,Wunderground v.1.15,2013-10-12 16:29:00,
2013-10-12 12:31:00,66.8,63.1,29.98,NNW,341,0.0,2.0,88,0.00,,,0.00,Wunderground v.1.15,2013-10-12 16:31:00,
2013-10-12 12:32:00,66.8,63.1,29.98,NNW,346,1.0,2.0,88,0.00,,,0.00,Wunderground v.1.15,2013-10-12 16:32:00,
2013-10-12 12:33:00,66.9,63.2,29.98,NW,321,0.0,2.0,88,0.00,,,0.00,Wunderground v.1.15,2013-10-12 16:33:00,
2013-10-12 12:34:00,66.9,63.2,29.98,NW,321,0.0,2.0,88,0.00,,,0.00,Wunderground v.1.15,2013-10-12 16:34:00,
2013-10-12 12:36:00,66.9,63.2,29.98,NNW,334,0.0,2.0,88,0.00,,,0.00,Wunderground v.1.15,2013-10-12 16:36:00,
2013-10-12 12:37:00,66.9,63.2,29.98,NNE,12,2.0,3.0,88,0.00,,,0.00,Wunderground v.1.15,2013-10-12 16:37:00,
2013-10-12 12:38:00,67.0,63.3,29.98,NNE,18,1.0,5.0,88,0.00,,,0.00,Wunderground v.1.15,2013-10-12 16:38:00,
2013-10-12 12:39:00,66.9,63.2,29.98,NNE,18,0.0,5.0,88,0.00,,,0.00,Wunderground v.1.15,2013-10-12 16:39:00,
2013-10-12 12:40:00,67.0,63.3,29.98,NNE,18,0.0,1.0,88,0.00,,,0.00,Wunderground v.1.15,2013-10-12 16:40:00,
2013-10-12 12:41:00,67.0,63.3,29.97,NNE,12,1.0,1.0,88,0.00,,,0.00,Wunderground v.1.15,2013-10-12 16:41:00,
2013-10-12 12:43:00,67.1,63.4,29.98,North,11,0.0,1.0,88,0.00,,,0.00,Wunderground v.1.15,2013-10-12 16:43:00,
2013-10-12 12:44:00,67.1,63.4,29.98,SW,231,3.0,4.0,88,0.00,,,0.00,Wunderground v.1.15,2013-10-12 16:44:00,
2013-10-12 12:45:00,67.1,63.4,29.98,WNW,294,2.0,4.0,88,0.00,,,0.00,Wunderground v.1.15,2013-10-12 16:45:00,
2013-10-12 12:47:00,67.1,63.4,29.98,SW,217,1.0,4.0,88,0.00,,,0.00,Wunderground v.1.15,2013-10-12 16:47:00,
2013-10-12 12:48:00,67.1,63.7,29.98,SSW,205,0.0,4.0,89,0.00,,,0.00,Wunderground v.1.15,2013-10-12 16:48:00,
2013-10-12 12:49:00,67.1,63.7,29.98,SSW,204,1.0,4.0,89,0.00,,,0.00,Wunderground v.1.15,2013-10-12 16:49:00,
2013-10-12 12:50:00,67.1,63.7,29.98,SSW,204,0.0,1.0,89,0.00,,,0.00,Wunderground v.1.15,2013-10-12 16:50:00,
2013-10-12 12:52:00,67.1,63.7,29.98,WNW,292,1.0,2.0,89,0.00,,,0.00,Wunderground v.1.15,2013-10-12 16:52:00,
2013-10-12 12:53:00,67.0,64.0,29.97,NNE,19,0.0,2.0,90,0.00,,,0.00,Wunderground v.1.15,2013-10-12 16:53:00,
2013-10-12 12:54:00,67.0,64.0,29.97,NNE,15,0.0,2.0,90,0.00,,,0.00,Wunderground v.1.15,2013-10-12 16:54:00,
2013-10-12 12:56:00,66.9,63.9,29.97,North,360,2.0,3.0,90,0.00,,,0.00,Wunderground v.1.15,2013-10-12 16:56:00,
2013-10-12 12:58:00,66.7,63.7,29.97,NNE,18,1.0,3.0,90,0.00,,,0.00,Wunderground v.1.15,2013-10-12 16:58:00,
2013-10-12 12:59:00,66.7,64.0,29.97,NNE,18,1.0,3.0,91,0.00,,,0.00,Wunderground v.1.15,2013-10-12 16:59:00,
2013-10-12 13:00:00,66.7,64.0,29.97,NNE,16,0.0,1.0,91,0.00,,,0.00,Wunderground v.1.15,2013-10-12 17:00:00,
2013-10-12 13:01:00,66.6,64.2,29.97,NNE,16,0.0,1.0,92,0.00,,,0.00,Wunderground v.1.15,2013-10-12 17:01:00,
2013-10-12 13:03:00,66.6,64.2,29.97,NNE,16,0.0,1.0,92,0.00,,,0.00,Wunderground v.1.15,2013-10-12 17:03:00,
2013-10-12 13:04:00,66.7,64.3,29.97,NNE,16,0.0,1.0,92,0.00,,,0.00,Wunderground v.1.15,2013-10-12 17:04:00,
2013-10-12 13:06:00,66.7,64.3,29.97,NNE,16,0.0,1.0,92,0.00,,,0.00,Wunderground v.1.15,2013-10-12 17:06:00,
2013-10-12 13:07:00,66.7,64.3,29.97,NNE,18,0.0,1.0,92,0.00,,,0.00,Wunderground v.1.15,2013-10-12 17:07:00,
2013-10-12 13:08:00,66.7,64.3,29.97,WSW,241,0.0,1.0,92,0.00,,,0.00,Wunderground v.1.15,2013-10-12 17:08:00,
2013-10-12 13:09:00,66.7,64.3,29.97,West,281,0.0,1.0,92,0.00,,,0.00,Wunderground v.1.15,2013-10-12 17:09:00,
2013-10-12 13:10:00,66.7,64.3,29.97,South,184,0.0,1.0,92,0.00,,,0.00,Wunderground v.1.15,2013-10-12 17:10:00,
2013-10-12 13:11:00,66.7,64.3,29.97,NNE,32,0.0,3.0,92,0.00,,,0.00,Wunderground v.1.15,2013-10-12 17:11:00,
2013-10-12 13:12:00,66.7,64.0,29.97,NNE,32,0.0,3.0,91,0.00,,,0.00,Wunderground v.1.15,2013-10-12 17:12:00,
2013-10-12 13:13:00,66.7,64.3,29.97,East,81,2.0,3.0,92,0.00,,,0.00,Wunderground v.1.15,2013-10-12 17:13:00,
2013-10-12 13:14:00,66.7,64.0,29.97,West,264,1.0,3.0,91,0.00,,,0.00,Wunderground v.1.15,2013-10-12 17:14:00,
2013-10-12 13:15:00,66.7,64.0,29.97,NNE,22,1.0,3.0,91,0.00,,,0.00,Wunderground v.1.15,2013-10-12 17:15:00,
2013-10-12 13:16:00,66.6,63.9,29.97,West,276,1.0,4.0,91,0.00,,,0.00,Wunderground v.1.15,2013-10-12 17:16:00,
2013-10-12 13:17:00,66.6,63.9,29.97,West,277,0.0,4.0,91,0.00,,,0.00,Wunderground v.1.15,2013-10-12 17:17:00,
2013-10-12 13:19:00,66.7,64.3,29.97,WSW,255,2.0,4.0,92,0.00,,,0.00,Wunderground v.1.15,2013-10-12 17:19:00,
2013-10-12 13:21:00,66.7,64.0,29.97,West,276,1.0,3.0,91,0.00,,,0.00,Wunderground v.1.15,2013-10-12 17:21:00,
2013-10-12 13:22:00,66.6,63.9,29.97,West,280,1.0,3.0,91,0.00,,,0.00,Wunderground v.1.15,2013-10-12 17:22:00,
2013-10-12 13:24:00,66.6,63.9,29.97,SW,235,1.0,3.0,91,0.00,,,0.00,Wunderground v.1.15,2013-10-12 17:24:00,
2013-10-12 13:25:00,66.5,63.8,29.97,SW,235,0.0,3.0,91,0.00,,,0.00,Wunderground v.1.15,2013-10-12 17:25:00,
2013-10-12 13:26:00,66.5,64.1,29.97,SW,235,0.0,3.0,92,0.00,,,0.00,Wunderground v.1.15,2013-10-12 17:26:00,
2013-10-12 13:27:00,66.6,64.2,29.97,SW,235,0.0,3.0,92,0.00,,,0.00,Wunderground v.1.15,2013-10-12 17:27:00,
2013-10-12 13:28:00,66.6,64.2,29.97,SW,235,0.0,3.0,92,0.00,,,0.00,Wunderground v.1.15,2013-10-12 17:28:00,
2013-10-12 13:29:00,66.6,64.2,29.97,SW,235,1.0,3.0,92,0.00,,,0.00,Wunderground v.1.15,2013-10-12 17:29:00,
2013-10-12 13:30:00,66.6,64.2,29.97,SW,234,0.0,0.0,92,0.00,,,0.00,Wunderground v.1.15,2013-10-12 17:30:00,
2013-10-12 13:32:00,66.6,64.2,29.97,SW,229,5.0,5.0,92,0.00,,,0.00,Wunderground v.1.15,2013-10-12 17:32:00,
2013-10-12 13:33:00,66.6,63.9,29.97,North,7,0.0,6.0,91,0.00,,,0.00,Wunderground v.1.15,2013-10-12 17:33:00,
2013-10-12 13:34:00,66.5,63.8,29.97,North,360,1.0,6.0,91,0.00,,,0.00,Wunderground v.1.15,2013-10-12 17:34:00,
2013-10-12 13:35:00,66.5,63.8,29.97,North,4,0.0,6.0,91,0.00,,,0.00,Wunderground v.1.15,2013-10-12 17:35:00,
2013-10-12 13:37:00,66.5,64.1,29.96,North,349,0.0,6.0,92,0.00,,,0.00,Wunderground v.1.15,2013-10-12 17:37:00,
2013-10-12 13:38:00,66.5,64.1,29.97,North,360,1.0,6.0,92,0.00,,,0.00,Wunderground v.1.15,2013-10-12 17:38:00,
2013-10-12 13:40:00,66.5,63.8,29.96,North,360,0.0,6.0,91,0.00,,,0.00,Wunderground v.1.15,2013-10-12 17:40:00,
2013-10-12 13:43:00,66.5,64.1,29.96,WNW,290,0.0,1.0,92,0.00,,,0.00,Wunderground v.1.15,2013-10-12 17:43:00,
2013-10-12 13:44:00,66.5,64.1,29.96,WNW,290,0.0,1.0,92,0.00,,,0.00,Wunderground v.1.15,2013-10-12 17:44:00,
2013-10-12 13:45:00,66.5,64.1,29.96,WNW,290,0.0,1.0,92,0.00,,,0.00,Wunderground v.1.15,2013-10-12 17:45:00,
2013-10-12 13:46:00,66.6,64.2,29.96,WNW,290,0.0,1.0,92,0.00,,,0.00,Wunderground v.1.15,2013-10-12 17:46:00,
2013-10-12 13:48:00,66.6,64.2,29.96,WSW,246,0.0,1.0,92,0.00,,,0.00,Wunderground v.1.15,2013-10-12 17:48:00,
2013-10-12 13:50:00,66.6,64.2,29.96,NNE,33,0.0,1.0,92,0.00,,,0.00,Wunderground v.1.15,2013-10-12 17:50:00,
2013-10-12 13:51:00,66.6,64.2,29.96,North,355,0.0,1.0,92,0.00,,,0.00,Wunderground v.1.15,2013-10-12 17:51:00,
2013-10-12 13:53:00,66.5,64.1,29.96,WNW,300,1.0,3.0,92,0.00,,,0.00,Wunderground v.1.15,2013-10-12 17:53:00,
2013-10-12 13:54:00,66.5,64.1,29.96,WNW,285,0.0,3.0,92,0.00,,,0.00,Wunderground v.1.15,2013-10-12 17:54:00,
2013-10-12 13:55:00,66.5,64.1,29.95,SW,218,2.0,3.0,92,0.00,,,0.00,Wunderground v.1.15,2013-10-12 17:55:00,
2013-10-12 13:56:00,66.5,64.1,29.95,West,262,0.0,3.0,92,0.00,,,0.00,Wunderground v.1.15,2013-10-12 17:56:00,
2013-10-12 13:58:00,66.5,64.1,29.95,NE,38,0.0,3.0,92,0.00,,,0.00,Wunderground v.1.15,2013-10-12 17:58:00,
2013-10-12 13:59:00,66.6,64.2,29.95,NE,42,1.0,3.0,92,0.00,,,0.00,Wunderground v.1.15,2013-10-12 17:59:00,
2013-10-12 14:00:00,66.6,64.2,29.95,ENE,68,1.0,2.0,92,0.00,,,0.00,Wunderground v.1.15,2013-10-12 18:00:00,
2013-10-12 14:01:00,66.6,64.2,29.95,WNW,285,1.0,2.0,92,0.00,,,0.00,Wunderground v.1.15,2013-10-12 18:01:00,
2013-10-12 14:03:00,66.6,63.9,29.95,West,267,1.0,3.0,91,0.00,,,0.00,Wunderground v.1.15,2013-10-12 18:03:00,
2013-10-12 14:04:00,66.6,63.9,29.95,WSW,240,1.0,3.0,91,0.00,,,0.00,Wunderground v.1.15,2013-10-12 18:04:00,
2013-10-12 14:05:00,66.6,63.9,29.95,SSW,203,2.0,3.0,91,0.00,,,0.00,Wunderground v.1.15,2013-10-12 18:05:00,
2013-10-12 14:06:00,66.6,63.9,29.95,WSW,258,0.0,3.0,91,0.00,,,0.00,Wunderground v.1.15,2013-10-12 18:06:00,
2013-10-12 14:08:00,66.7,64.0,29.95,SW,216,0.0,3.0,91,0.00,,,0.00,Wunderground v.1.15,2013-10-12 18:08:00,
2013-10-12 14:09:00,66.8,64.1,29.95,SW,236,0.0,3.0,91,0.00,,,0.00,Wunderground v.1.15,2013-10-12 18:09:00,
2013-10-12 14:10:00,66.8,64.1,29.95,SW,236,0.0,1.0,91,0.00,,,0.00,Wunderground v.1.15,2013-10-12 18:10:00,
2013-10-12 14:11:00,66.8,64.1,29.95,SW,236,0.0,1.0,91,0.00,,,0.00,Wunderground v.1.15,2013-10-12 18:11:00,
2013-10-12 14:13:00,66.9,64.2,29.95,WSW,240,1.0,1.0,91,0.00,,,0.00,Wunderground v.1.15,2013-10-12 18:13:00,
2013-10-12 14:15:00,66.9,64.2,29.95,WSW,243,1.0,1.0,91,0.00,,,0.00,Wunderground v.1.15,2013-10-12 18:15:00,
2013-10-12 14:16:00,66.9,64.2,29.95,North,355,1.0,2.0,91,0.00,,,0.00,Wunderground v.1.15,2013-10-12 18:16:00,
2013-10-12 14:18:00,66.9,64.2,29.95,North,8,2.0,2.0,91,0.00,,,0.00,Wunderground v.1.15,2013-10-12 18:18:00,
2013-10-12 14:20:00,66.9,63.9,29.95,ENE,61,3.0,3.0,90,0.00,,,0.00,Wunderground v.1.15,2013-10-12 18:20:00,
2013-10-12 14:21:00,66.9,63.9,29.95,ENE,61,0.0,3.0,90,0.00,,,0.00,Wunderground v.1.15,2013-10-12 18:21:00,
2013-10-12 14:23:00,66.9,63.9,29.95,ENE,65,0.0,3.0,90,0.00,,,0.00,Wunderground v.1.15,2013-10-12 18:23:00,
2013-10-12 14:25:00,66.9,63.9,29.95,SSW,211,0.0,3.0,90,0.00,,,0.00,Wunderground v.1.15,2013-10-12 18:25:00,
2013-10-12 14:26:00,67.1,64.1,29.95,SSW,211,0.0,3.0,90,0.00,,,0.00,Wunderground v.1.15,2013-10-12 18:26:00,
2013-10-12 14:28:00,67.2,64.5,29.95,SSW,210,0.0,3.0,91,0.00,,,0.00,Wunderground v.1.15,2013-10-12 18:28:00,
2013-10-12 14:30:00,67.2,64.2,29.95,SSW,210,0.0,0.0,90,0.00,,,0.00,Wunderground v.1.15,2013-10-12 18:30:00,
2013-10-12 14:31:00,67.3,64.3,29.95,North,4,1.0,2.0,90,0.00,,,0.00,Wunderground v.1.15,2013-10-12 18:31:00,
2013-10-12 14:32:00,67.3,64.3,29.95,North,4,0.0,2.0,90,0.00,,,0.00,Wunderground v.1.15,2013-10-12 18:32:00,
2013-10-12 14:35:00,67.5,64.5,29.95,North,351,0.0,2.0,90,0.00,,,0.00,Wunderground v.1.15,2013-10-12 18:35:00,
2013-10-12 14:36:00,67.5,64.5,29.95,North,351,0.0,2.0,90,0.00,,,0.00,Wunderground v.1.15,2013-10-12 18:36:00,
2013-10-12 14:37:00,67.5,64.5,29.95,North,352,0.0,2.0,90,0.00,,,0.00,Wunderground v.1.15,2013-10-12 18:37:00,
2013-10-12 14:40:00,67.6,64.6,29.96,North,355,0.0,1.0,90,0.00,,,0.00,Wunderground v.1.15,2013-10-12 18:40:00,
2013-10-12 14:41:00,67.6,64.2,29.96,SW,217,1.0,1.0,89,0.00,,,0.00,Wunderground v.1.15,2013-10-12 18:41:00,
2013-10-12 14:42:00,67.7,64.3,29.96,SW,229,1.0,1.0,89,0.00,,,0.00,Wunderground v.1.15,2013-10-12 18:42:00,
2013-10-12 14:43:00,67.7,64.7,29.96,SW,229,0.0,1.0,90,0.00,,,0.00,Wunderground v.1.15,2013-10-12 18:43:00,
2013-10-12 14:45:00,67.7,64.7,29.96,West,271,0.0,1.0,90,0.00,,,0.00,Wunderground v.1.15,2013-10-12 18:45:00,
2013-10-12 14:47:00,67.6,64.2,29.96,North,4,1.0,2.0,89,0.00,,,0.00,Wunderground v.1.15,2013-10-12 18:47:00,
2013-10-12 14:48:00,67.5,64.1,29.96,NNE,13,1.0,2.0,89,0.00,,,0.00,Wunderground v.1.15,2013-10-12 18:48:00,
2013-10-12 14:50:00,67.4,64.4,29.96,ENE,59,1.0,1.0,90,0.00,,,0.00,Wunderground v.1.15,2013-10-12 18:50:00,
2013-10-12 14:52:00,67.3,64.3,29.96,NE,48,0.0,3.0,90,0.00,,,0.00,Wunderground v.1.15,2013-10-12 18:52:00,
2013-10-12 14:53:00,67.2,64.2,29.96,NE,48,0.0,3.0,90,0.00,,,0.00,Wunderground v.1.15,2013-10-12 18:53:00,
2013-10-12 14:55:00,67.1,64.4,29.96,NNE,15,1.0,3.0,91,0.00,,,0.00,Wunderground v.1.15,2013-10-12 18:55:00,
2013-10-12 14:57:00,67.0,64.3,29.96,NNE,13,0.0,3.0,91,0.00,,,0.00,Wunderground v.1.15,2013-10-12 18:57:00,
2013-10-12 14:58:00,66.9,64.2,29.96,SW,226,0.0,3.0,91,0.00,,,0.00,Wunderground v.1.15,2013-10-12 18:58:00,
2013-10-12 15:00:00,66.9,64.2,29.96,WSW,238,0.0,1.0,91,0.00,,,0.00,Wunderground v.1.15,2013-10-12 19:00:00,
2013-10-12 15:01:00,66.9,64.5,29.96,WSW,238,0.0,1.0,92,0.00,,,0.00,Wunderground v.1.15,2013-10-12 19:01:00,
2013-10-12 15:02:00,66.9,64.5,29.96,WSW,240,1.0,1.0,92,0.00,,,0.00,Wunderground v.1.15,2013-10-12 19:02:00,
2013-10-12 15:03:00,66.9,64.5,29.96,SW,231,0.0,2.0,92,0.00,,,0.00,Wunderground v.1.15,2013-10-12 19:03:00,
2013-10-12 15:05:00,66.8,64.1,29.96,North,349,1.0,2.0,91,0.00,,,0.00,Wunderground v.1.15,2013-10-12 19:05:00,
2013-10-12 15:06:00,66.8,64.4,29.96,North,351,1.0,2.0,92,0.00,,,0.00,Wunderground v.1.15,2013-10-12 19:06:00,
2013-10-12 15:07:00,66.8,64.4,29.96,North,351,0.0,2.0,92,0.00,,,0.00,Wunderground v.1.15,2013-10-12 19:07:00,
2013-10-12 15:08:00,66.8,64.4,29.96,North,349,0.0,2.0,92,0.00,,,0.00,Wunderground v.1.15,2013-10-12 19:08:00,
2013-10-12 15:09:00,66.8,64.4,29.96,North,350,0.0,2.0,92,0.00,,,0.00,Wunderground v.1.15,2013-10-12 19:09:00,
2013-10-12 15:10:00,66.8,64.4,29.96,West,264,1.0,3.0,92,0.00,,,0.00,Wunderground v.1.15,2013-10-12 19:10:00,
2013-10-12 15:11:00,66.8,64.4,29.96,West,264,0.0,3.0,92,0.00,,,0.00,Wunderground v.1.15,2013-10-12 19:11:00,
2013-10-12 15:13:00,66.8,64.4,29.96,NNW,343,1.0,3.0,92,0.00,,,0.00,Wunderground v.1.15,2013-10-12 19:13:00,
2013-10-12 15:14:00,66.8,64.4,29.96,NNW,343,0.0,3.0,92,0.00,,,0.00,Wunderground v.1.15,2013-10-12 19:14:00,
2013-10-12 15:15:00,66.7,64.3,29.96,North,349,0.0,3.0,92,0.00,,,0.00,Wunderground v.1.15,2013-10-12 19:15:00,
2013-10-12 15:17:00,66.7,64.0,29.96,SSW,210,2.0,3.0,91,0.00,,,0.00,Wunderground v.1.15,2013-10-12 19:17:00,
2013-10-12 15:18:00,66.7,64.0,29.96,WSW,250,0.0,3.0,91,0.00,,,0.00,Wunderground v.1.15,2013-10-12 19:18:00,
2013-10-12 15:19:00,66.7,64.0,29.96,SW,232,2.0,3.0,91,0.00,,,0.00,Wunderground v.1.15,2013-10-12 19:19:00,
2013-10-12 15:20:00,66.8,64.4,29.96,WSW,245,0.0,1.0,92,0.00,,,0.00,Wunderground v.1.15,2013-10-12 19:20:00,
2013-10-12 15:22:00,66.8,64.4,29.96,West,276,0.0,1.0,92,0.00,,,0.00,Wunderground v.1.15,2013-10-12 19:22:00,
2013-10-12 15:23:00,66.9,64.2,29.96,WSW,258,0.0,1.0,91,0.00,,,0.00,Wunderground v.1.15,2013-10-12 19:23:00,
2013-10-12 15:24:00,66.9,64.2,29.96,WSW,258,0.0,1.0,91,0.00,,,0.00,Wunderground v.1.15,2013-10-12 19:24:00,
2013-10-12 15:25:00,66.9,64.2,29.96,WSW,245,0.0,1.0,91,0.00,,,0.00,Wunderground v.1.15,2013-10-12 19:25:00,
2013-10-12 15:27:00,66.9,64.2,29.96,WSW,245,0.0,1.0,91,0.00,,,0.00,Wunderground v.1.15,2013-10-12 19:27:00,
2013-10-12 15:28:00,67.0,64.3,29.96,WSW,245,0.0,1.0,91,0.00,,,0.00,Wunderground v.1.15,2013-10-12 19:28:00,
2013-10-12 15:29:00,67.0,64.3,29.96,WSW,245,0.0,1.0,91,0.00,,,0.00,Wunderground v.1.15,2013-10-12 19:29:00,
2013-10-12 15:30:00,67.1,64.4,29.97,WSW,245,0.0,1.0,91,0.00,,,0.00,Wunderground v.1.15,2013-10-12 19:30:00,
2013-10-12 15:31:00,67.1,64.4,29.97,West,259,1.0,2.0,91,0.00,,,0.00,Wunderground v.1.15,2013-10-12 19:31:00,
2013-10-12 15:32:00,67.2,64.5,29.97,North,355,0.0,2.0,91,0.00,,,0.00,Wunderground v.1.15,2013-10-12 19:32:00,
2013-10-12 15:33:00,67.2,64.5,29.97,WSW,245,1.0,2.0,91,0.00,,,0.00,Wunderground v.1.15,2013-10-12 19:33:00,
2013-10-12 15:34:00,67.2,64.2,29.97,West,280,2.0,2.0,90,0.00,,,0.00,Wunderground v.1.15,2013-10-12 19:34:00,
2013-10-12 15:35:00,67.2,64.2,29.97,West,262,3.0,3.0,90,0.00,,,0.00,Wunderground v.1.15,2013-10-12 19:35:00,
2013-10-12 15:36:00,67.3,64.3,29.97,West,262,1.0,3.0,90,0.00,,,0.00,Wunderground v.1.15,2013-10-12 19:36:00,
2013-10-12 15:37:00,67.3,64.3,29.97,WSW,242,2.0,3.0,90,0.00,,,0.00,Wunderground v.1.15,2013-10-12 19:37:00,
2013-10-12 15:39:00,67.3,64.3,29.97,WSW,255,0.0,3.0,90,0.00,,,0.00,Wunderground v.1.15,2013-10-12 19:39:00,
2013-10-12 15:40:00,67.4,64.4,29.97,WSW,255,0.0,1.0,90,0.00,,,0.00,Wunderground v.1.15,2013-10-12 19:40:00,
2013-10-12 15:42:00,67.4,64.4,29.97,WSW,255,0.0,1.0,90,0.00,,,0.00,Wunderground v.1.15,2013-10-12 19:42:00,
2013-10-12 15:44:00,67.5,64.5,29.97,WSW,255,0.0,1.0,90,0.00,,,0.00,Wunderground v.1.15,2013-10-12 19:44:00,
2013-10-12 15:46:00,67.6,64.6,29.97,WSW,255,0.0,1.0,90,0.00,,,0.00,Wunderground v.1.15,2013-10-12 19:46:00,
2013-10-12 15:47:00,67.7,64.7,29.97,North,4,2.0,2.0,90,0.00,,,0.00,Wunderground v.1.15,2013-10-12 19:47:00,
2013-10-12 15:48:00,67.7,64.7,29.97,West,277,1.0,2.0,90,0.00,,,0.00,Wunderground v.1.15,2013-10-12 19:48:00,
2013-10-12 15:49:00,67.7,64.7,29.97,SW,224,1.0,2.0,90,0.00,,,0.00,Wunderground v.1.15,2013-10-12 19:49:00,
2013-10-12 15:51:00,67.7,64.3,29.97,SW,232,1.0,1.0,89,0.00,,,0.00,Wunderground v.1.15,2013-10-12 19:51:00,
2013-10-12 15:53:00,67.7,64.7,29.97,SW,232,0.0,1.0,90,0.00,,,0.00,Wunderground v.1.15,2013-10-12 19:53:00,
2013-10-12 15:54:00,67.7,64.7,29.97,SW,232,0.0,1.0,90,0.00,,,0.00,Wunderground v.1.15,2013-10-12 19:54:00,
2013-10-12 15:55:00,67.8,64.8,29.97,West,274,1.0,1.0,90,0.00,,,0.00,Wunderground v.1.15,2013-10-12 19:55:00,
2013-10-12 15:56:00,67.8,64.8,29.97,West,274,0.0,1.0,90,0.00,,,0.00,Wunderground v.1.15,2013-10-12 19:56:00,
2013-10-12 15:58:00,67.9,64.5,29.97,West,274,0.0,1.0,89,0.00,,,0.00,Wunderground v.1.15,2013-10-12 19:58:00,
2013-10-12 15:59:00,67.9,64.5,29.97,West,274,0.0,1.0,89,0.00,,,0.00,Wunderground v.1.15,2013-10-12 19:59:00,
2013-10-12 16:00:00,67.9,64.5,29.97,West,262,0.0,0.0,89,0.00,,,0.00,Wunderground v.1.15,2013-10-12 20:00:00,
2013-10-12 16:02:00,67.9,64.5,29.97,WSW,240,0.0,1.0,89,0.00,,,0.00,Wunderground v.1.15,2013-10-12 20:02:00,
2013-10-12 16:03:00,68.0,64.6,29.97,WSW,243,0.0,1.0,89,0.00,,,0.00,Wunderground v.1.15,2013-10-12 20:03:00,
2013-10-12 16:04:00,68.0,64.6,29.97,WSW,240,0.0,1.0,89,0.00,,,0.00,Wunderground v.1.15,2013-10-12 20:04:00,
2013-10-12 16:05:00,68.0,64.6,29.97,SW,221,1.0,1.0,89,0.00,,,0.00,Wunderground v.1.15,2013-10-12 20:05:00,
2013-10-12 16:07:00,68.1,64.7,29.97,SW,222,0.0,1.0,89,0.00,,,0.00,Wunderground v.1.15,2013-10-12 20:07:00,
2013-10-12 16:09:00,68.2,64.8,29.97,SW,224,0.0,1.0,89,0.00,,,0.00,Wunderground v.1.15,2013-10-12 20:09:00,
2013-10-12 16:10:00,68.2,64.8,29.97,SW,222,0.0,1.0,89,0.00,,,0.00,Wunderground v.1.15,2013-10-12 20:10:00,
2013-10-12 16:12:00,68.3,64.9,29.97,SW,217,1.0,1.0,89,0.00,,,0.00,Wunderground v.1.15,2013-10-12 20:12:00,
2013-10-12 16:14:00,68.3,64.9,29.97,SW,217,0.0,1.0,89,0.00,,,0.00,Wunderground v.1.15,2013-10-12 20:14:00,
2013-10-12 16:15:00,68.4,65.0,29.97,SW,216,0.0,1.0,89,0.00,,,0.00,Wunderground v.1.15,2013-10-12 20:15:00,
2013-10-12 16:17:00,68.4,64.7,29.97,NNE,16,0.0,2.0,88,0.00,,,0.00,Wunderground v.1.15,2013-10-12 20:17:00,
2013-10-12 16:19:00,68.5,64.8,29.97,WSW,243,1.0,2.0,88,0.00,,,0.00,Wunderground v.1.15,2013-10-12 20:19:00,
2013-10-12 16:20:00,68.5,64.8,29.97,WSW,250,0.0,0.0,88,0.00,,,0.00,Wunderground v.1.15,2013-10-12 20:20:00,
2013-10-12 16:23:00,68.4,64.7,29.97,WSW,239,2.0,2.0,88,0.00,,,0.00,Wunderground v.1.15,2013-10-12 20:23:00,
2013-10-12 16:24:00,68.4,64.7,29.97,WSW,239,0.0,2.0,88,0.00,,,0.00,Wunderground v.1.15,2013-10-12 20:24:00,
2013-10-12 16:25:00,68.4,65.0,29.97,WSW,238,0.0,2.0,89,0.00,,,0.00,Wunderground v.1.15,2013-10-12 20:25:00,
2013-10-12 16:28:00,68.4,64.7,29.97,WSW,239,0.0,2.0,88,0.00,,,0.00,Wunderground v.1.15,2013-10-12 20:28:00,
2013-10-12 16:29:00,68.4,65.0,29.97,WSW,238,0.0,2.0,89,0.00,,,0.00,Wunderground v.1.15,2013-10-12 20:29:00,
2013-10-12 16:30:00,68.3,64.9,29.97,WSW,238,0.0,0.0,89,0.00,,,0.00,Wunderground v.1.15,2013-10-12 20:30:00,
2013-10-12 16:31:00,68.3,64.9,29.97,WSW,238,0.0,0.0,89,0.00,,,0.00,Wunderground v.1.15,2013-10-12 20:31:00,
2013-10-12 16:33:00,68.3,64.9,29.97,WSW,238,1.0,1.0,89,0.00,,,0.00,Wunderground v.1.15,2013-10-12 20:33:00,
2013-10-12 16:34:00,68.3,64.9,29.97,WSW,238,1.0,1.0,89,0.00,,,0.00,Wunderground v.1.15,2013-10-12 20:34:00,
2013-10-12 16:35:00,68.3,64.9,29.97,WSW,238,1.0,1.0,89,0.00,,,0.00,Wunderground v.1.15,2013-10-12 20:35:00,
2013-10-12 16:36:00,68.3,64.9,29.97,WSW,239,0.0,1.0,89,0.00,,,0.00,Wunderground v.1.15,2013-10-12 20:36:00,
2013-10-12 16:38:00,68.3,64.9,29.97,SSW,201,0.0,1.0,89,0.00,,,0.00,Wunderground v.1.15,2013-10-12 20:38:00,
2013-10-12 16:39:00,68.3,64.9,29.97,South,190,0.0,1.0,89,0.00,,,0.00,Wunderground v.1.15,2013-10-12 20:39:00,
2013-10-12 16:40:00,68.3,64.9,29.97,South,190,0.0,0.0,89,0.00,,,0.00,Wunderground v.1.15,2013-10-12 20:40:00,
2013-10-12 16:41:00,68.3,64.9,29.97,South,190,0.0,0.0,89,0.00,,,0.00,Wunderground v.1.15,2013-10-12 20:41:00,
2013-10-12 16:43:00,68.3,64.9,29.97,WSW,243,0.0,2.0,89,0.00,,,0.00,Wunderground v.1.15,2013-10-12 20:43:00,
2013-10-12 16:45:00,68.3,64.9,29.97,WSW,244,0.0,2.0,89,0.00,,,0.00,Wunderground v.1.15,2013-10-12 20:45:00,
2013-10-12 16:46:00,68.3,65.3,29.97,WSW,243,0.0,2.0,90,0.00,,,0.00,Wunderground v.1.15,2013-10-12 20:46:00,
2013-10-12 16:48:00,68.4,65.4,29.97,WNW,301,0.0,2.0,90,0.00,,,0.00,Wunderground v.1.15,2013-10-12 20:48:00,
2013-10-12 16:50:00,68.3,65.3,29.97,WNW,301,0.0,1.0,90,0.00,,,0.00,Wunderground v.1.15,2013-10-12 20:50:00,
2013-10-12 16:51:00,68.3,64.9,29.97,WNW,301,0.0,1.0,89,0.00,,,0.00,Wunderground v.1.15,2013-10-12 20:51:00,
2013-10-12 16:53:00,68.3,64.9,29.97,SW,233,0.0,2.0,89,0.00,,,0.00,Wunderground v.1.15,2013-10-12 20:53:00,
2013-10-12 16:55:00,68.3,64.9,29.97,SW,233,0.0,2.0,89,0.00,,,0.00,Wunderground v.1.15,2013-10-12 20:55:00,
2013-10-12 16:56:00,68.3,65.3,29.97,SW,233,0.0,2.0,90,0.00,,,0.00,Wunderground v.1.15,2013-10-12 20:56:00,
2013-10-12 16:59:00,68.3,65.3,29.97,SW,233,0.0,2.0,90,0.00,,,0.00,Wunderground v.1.15,2013-10-12 20:59:00,
2013-10-12 17:00:00,68.3,65.3,29.97,SW,233,0.0,0.0,90,0.00,,,0.00,Wunderground v.1.15,2013-10-12 21:00:00,
2013-10-12 17:01:00,68.3,65.3,29.97,SW,233,0.0,0.0,90,0.00,,,0.00,Wunderground v.1.15,2013-10-12 21:01:00,
2013-10-12 17:02:00,68.3,65.3,29.97,SW,233,0.0,1.0,90,0.00,,,0.00,Wunderground v.1.15,2013-10-12 21:02:00,
2013-10-12 17:04:00,68.2,65.2,29.97,NNW,342,0.0,2.0,90,0.00,,,0.00,Wunderground v.1.15,2013-10-12 21:04:00,
2013-10-12 17:06:00,68.1,65.1,29.97,NNW,341,0.0,2.0,90,0.00,,,0.00,Wunderground v.1.15,2013-10-12 21:06:00,
2013-10-12 17:07:00,68.1,65.1,29.97,NNW,342,0.0,2.0,90,0.00,,,0.00,Wunderground v.1.15,2013-10-12 21:07:00,
2013-10-12 17:09:00,68.0,65.0,29.97,North,5,1.0,2.0,90,0.00,,,0.00,Wunderground v.1.15,2013-10-12 21:09:00,
2013-10-12 17:11:00,67.9,64.9,29.97,North,5,0.0,1.0,90,0.00,,,0.00,Wunderground v.1.15,2013-10-12 21:11:00,
2013-10-12 17:12:00,67.9,65.2,29.97,North,5,0.0,2.0,91,0.00,,,0.00,Wunderground v.1.15,2013-10-12 21:12:00,
2013-10-12 17:15:00,67.8,65.1,29.98,North,5,0.0,2.0,91,0.00,,,0.00,Wunderground v.1.15,2013-10-12 21:15:00,
2013-10-12 17:16:00,67.7,65.0,29.98,North,5,0.0,2.0,91,0.00,,,0.00,Wunderground v.1.15,2013-10-12 21:16:00,
2013-10-12 17:17:00,67.7,65.3,29.98,North,5,0.0,2.0,92,0.00,,,0.00,Wunderground v.1.15,2013-10-12 21:17:00,
2013-10-12 17:20:00,67.6,65.2,29.98,North,5,0.0,2.0,92,0.00,,,0.00,Wunderground v.1.15,2013-10-12 21:20:00,
2013-10-12 17:21:00,67.6,65.2,29.98,North,1,1.0,1.0,92,0.00,,,0.00,Wunderground v.1.15,2013-10-12 21:21:00,
2013-10-12 17:22:00,67.6,65.2,29.98,North,1,0.0,1.0,92,0.00,,,0.00,Wunderground v.1.15,2013-10-12 21:22:00,
2013-10-12 17:23:00,67.5,65.1,29.98,North,1,0.0,1.0,92,0.00,,,0.00,Wunderground v.1.15,2013-10-12 21:23:00,
2013-10-12 17:26:00,67.4,65.3,29.98,North,3,0.0,1.0,93,0.00,,,0.00,Wunderground v.1.15,2013-10-12 21:26:00,
2013-10-12 17:27:00,67.4,65.3,29.98,North,4,0.0,1.0,93,0.00,,,0.00,Wunderground v.1.15,2013-10-12 21:27:00,
2013-10-12 17:28:00,67.3,65.2,29.98,North,3,0.0,1.0,93,0.00,,,0.00,Wunderground v.1.15,2013-10-12 21:28:00,
2013-10-12 17:31:00,67.2,65.1,29.98,North,4,1.0,1.0,93,0.00,,,0.01,Wunderground v.1.15,2013-10-12 21:31:00,
2013-10-12 17:32:00,67.2,65.1,29.98,North,3,0.0,1.0,93,0.00,,,0.01,Wunderground v.1.15,2013-10-12 21:32:00,
2013-10-12 17:33:00,67.2,65.1,29.98,North,4,0.0,1.0,93,0.00,,,0.01,Wunderground v.1.15,2013-10-12 21:33:00,
2013-10-12 17:34:00,67.2,65.1,29.98,North,4,0.0,1.0,93,0.00,,,0.01,Wunderground v.1.15,2013-10-12 21:34:00,
2013-10-12 17:37:00,67.0,64.9,29.98,NNW,341,0.0,1.0,93,0.00,,,0.01,Wunderground v.1.15,2013-10-12 21:37:00,
2013-10-12 17:38:00,66.9,64.8,29.98,WSW,250,0.0,1.0,93,0.00,,,0.01,Wunderground v.1.15,2013-10-12 21:38:00,
2013-10-12 17:39:00,66.9,64.8,29.98,SW,225,0.0,1.0,93,0.00,,,0.01,Wunderground v.1.15,2013-10-12 21:39:00,
2013-10-12 17:42:00,66.8,65.0,29.98,SW,225,0.0,0.0,94,0.00,,,0.01,Wunderground v.1.15,2013-10-12 21:42:00,
2013-10-12 17:43:00,66.7,64.9,29.98,SW,225,0.0,0.0,94,0.00,,,0.01,Wunderground v.1.15,2013-10-12 21:43:00,
2013-10-12 17:44:00,66.7,64.9,29.98,SW,225,0.0,0.0,94,0.00,,,0.01,Wunderground v.1.15,2013-10-12 21:44:00,
2013-10-12 17:47:00,66.7,64.9,29.98,NW,307,1.0,1.0,94,0.00,,,0.01,Wunderground v.1.15,2013-10-12 21:47:00,
2013-10-12 17:48:00,66.6,64.8,29.99,WSW,240,1.0,1.0,94,0.00,,,0.01,Wunderground v.1.15,2013-10-12 21:48:00,
2013-10-12 17:49:00,66.6,64.8,29.98,WSW,240,0.0,1.0,94,0.00,,,0.01,Wunderground v.1.15,2013-10-12 21:49:00,
2013-10-12 17:52:00,66.5,64.7,29.99,NW,323,0.0,1.0,94,0.00,,,0.01,Wunderground v.1.15,2013-10-12 21:52:00,
2013-10-12 17:53:00,66.5,64.7,29.99,NW,323,0.0,1.0,94,0.00,,,0.01,Wunderground v.1.15,2013-10-12 21:53:00,
2013-10-12 17:54:00,66.5,64.7,29.99,NW,323,0.0,1.0,94,0.00,,,0.01,Wunderground v.1.15,2013-10-12 21:54:00,
2013-10-12 17:57:00,66.4,64.9,29.99,NW,323,0.0,1.0,95,0.00,,,0.01,Wunderground v.1.15,2013-10-12 21:57:00,
2013-10-12 17:58:00,66.4,64.9,29.99,NW,323,1.0,1.0,95,0.00,,,0.01,Wunderground v.1.15,2013-10-12 21:58:00,
2013-10-12 17:59:00,66.4,64.9,29.98,NW,323,0.0,1.0,95,0.00,,,0.01,Wunderground v.1.15,2013-10-12 21:59:00,
2013-10-12 18:02:00,66.3,64.8,29.99,NW,323,0.0,0.0,95,0.00,,,0.01,Wunderground v.1.15,2013-10-12 22:02:00,
2013-10-12 18:03:00,66.3,64.8,29.99,NNE,13,0.0,2.0,95,0.00,,,0.01,Wunderground v.1.15,2013-10-12 22:03:00,
2013-10-12 18:04:00,66.3,64.8,29.99,NNE,13,0.0,2.0,95,0.00,,,0.01,Wunderground v.1.15,2013-10-12 22:04:00,
2013-10-12 18:05:00,66.3,64.8,29.99,NNE,13,0.0,2.0,95,0.00,,,0.01,Wunderground v.1.15,2013-10-12 22:05:00,
2013-10-12 18:07:00,66.2,64.7,29.99,NNW,334,0.0,2.0,95,0.00,,,0.01,Wunderground v.1.15,2013-10-12 22:07:00,
2013-10-12 18:09:00,66.2,64.7,29.99,NNW,335,0.0,2.0,95,0.00,,,0.02,Wunderground v.1.15,2013-10-12 22:09:00,
2013-10-12 18:10:00,66.2,64.7,29.99,NNE,32,2.0,2.0,95,0.00,,,0.02,Wunderground v.1.15,2013-10-12 22:10:00,
2013-10-12 18:12:00,66.1,64.6,29.99,NE,48,0.0,2.0,95,0.00,,,0.02,Wunderground v.1.15,2013-10-12 22:12:00,
2013-10-12 18:14:00,66.1,64.6,29.99,NE,49,0.0,2.0,95,0.00,,,0.02,Wunderground v.1.15,2013-10-12 22:14:00,
2013-10-12 18:15:00,66.0,64.5,29.99,NE,49,0.0,2.0,95,0.00,,,0.02,Wunderground v.1.15,2013-10-12 22:15:00,
2013-10-12 18:16:00,66.0,64.5,29.99,NE,48,0.0,2.0,95,0.00,,,0.02,Wunderground v.1.15,2013-10-12 22:16:00,
2013-10-12 18:17:00,66.0,64.8,29.99,NE,48,0.0,2.0,96,0.00,,,0.02,Wunderground v.1.15,2013-10-12 22:17:00,
2013-10-12 18:19:00,66.0,64.8,29.99,NE,46,1.0,2.0,96,0.00,,,0.02,Wunderground v.1.15,2013-10-12 22:19:00,
2013-10-12 18:20:00,66.0,64.8,29.99,NE,46,1.0,1.0,96,0.00,,,0.02,Wunderground v.1.15,2013-10-12 22:20:00,
2013-10-12 18:21:00,66.0,64.8,29.99,NE,44,0.0,1.0,96,0.00,,,0.02,Wunderground v.1.15,2013-10-12 22:21:00,
2013-10-12 18:23:00,65.9,64.7,29.99,NW,321,1.0,1.0,96,0.00,,,0.02,Wunderground v.1.15,2013-10-12 22:23:00,
2013-10-12 18:24:00,65.9,64.7,29.99,NW,321,0.0,1.0,96,0.00,,,0.02,Wunderground v.1.15,2013-10-12 22:24:00,
2013-10-12 18:25:00,65.9,64.7,29.99,NW,321,0.0,1.0,96,0.00,,,0.02,Wunderground v.1.15,2013-10-12 22:25:00,
2013-10-12 18:26:00,65.9,64.7,29.99,NW,321,0.0,1.0,96,0.00,,,0.02,Wunderground v.1.15,2013-10-12 22:26:00,
2013-10-12 18:27:00,65.9,64.7,29.99,NW,321,0.0,1.0,96,0.00,,,0.02,Wunderground v.1.15,2013-10-12 22:27:00,
2013-10-12 18:28:00,65.9,64.7,29.99,NW,321,0.0,1.0,96,0.00,,,0.02,Wunderground v.1.15,2013-10-12 22:28:00,
2013-10-12 18:29:00,65.9,64.7,29.99,NW,321,0.0,1.0,96,0.00,,,0.02,Wunderground v.1.15,2013-10-12 22:29:00,
2013-10-12 18:30:00,65.9,64.7,29.99,NW,321,0.0,0.0,96,0.00,,,0.02,Wunderground v.1.15,2013-10-12 22:30:00,
2013-10-12 18:31:00,65.9,64.7,29.99,NW,321,0.0,1.0,96,0.00,,,0.02,Wunderground v.1.15,2013-10-12 22:31:00,
2013-10-12 18:33:00,65.9,64.7,29.99,NW,321,0.0,1.0,96,0.00,,,0.02,Wunderground v.1.15,2013-10-12 22:33:00,
2013-10-12 18:35:00,65.9,64.7,29.99,NW,321,0.0,1.0,96,0.00,,,0.02,Wunderground v.1.15,2013-10-12 22:35:00,
2013-10-12 18:36:00,65.8,64.6,29.99,NW,321,0.0,1.0,96,0.00,,,0.02,Wunderground v.1.15,2013-10-12 22:36:00,
2013-10-12 18:38:00,65.8,64.6,30.00,NW,321,0.0,1.0,96,0.00,,,0.02,Wunderground v.1.15,2013-10-12 22:38:00,
2013-10-12 18:40:00,65.8,64.6,30.00,NW,321,0.0,0.0,96,0.00,,,0.02,Wunderground v.1.15,2013-10-12 22:40:00,
2013-10-12 18:41:00,65.8,64.6,30.00,NW,321,0.0,0.0,96,0.00,,,0.02,Wunderground v.1.15,2013-10-12 22:41:00,
2013-10-12 18:43:00,65.8,64.6,30.00,NW,321,0.0,0.0,96,0.00,,,0.02,Wunderground v.1.15,2013-10-12 22:43:00,
2013-10-12 18:44:00,65.8,64.6,30.00,NW,321,0.0,0.0,96,0.00,,,0.02,Wunderground v.1.15,2013-10-12 22:44:00,
2013-10-12 18:45:00,65.8,64.6,30.00,NW,321,0.0,0.0,96,0.00,,,0.02,Wunderground v.1.15,2013-10-12 22:45:00,
2013-10-12 18:46:00,65.8,64.6,30.00,NW,321,0.0,0.0,96,0.00,,,0.02,Wunderground v.1.15,2013-10-12 22:46:00,
2013-10-12 18:47:00,65.8,64.6,30.00,NW,321,0.0,0.0,96,0.00,,,0.02,Wunderground v.1.15,2013-10-12 22:47:00,
2013-10-12 18:48:00,65.8,64.6,30.00,NW,319,0.0,0.0,96,0.00,,,0.02,Wunderground v.1.15,2013-10-12 22:48:00,
2013-10-12 18:49:00,65.8,64.6,30.00,NW,319,0.0,0.0,96,0.00,,,0.02,Wunderground v.1.15,2013-10-12 22:49:00,
2013-10-12 18:50:00,65.8,64.6,30.00,NW,321,0.0,0.0,96,0.00,,,0.02,Wunderground v.1.15,2013-10-12 22:50:00,
2013-10-12 18:52:00,65.8,64.6,30.00,NW,321,0.0,0.0,96,0.00,,,0.02,Wunderground v.1.15,2013-10-12 22:52:00,
2013-10-12 18:53:00,65.8,64.6,30.00,NW,321,0.0,0.0,96,0.00,,,0.02,Wunderground v.1.15,2013-10-12 22:53:00,
2013-10-12 18:54:00,65.8,64.6,30.00,NW,321,0.0,0.0,96,0.00,,,0.02,Wunderground v.1.15,2013-10-12 22:54:00,
2013-10-12 18:55:00,65.8,64.6,30.00,NW,321,0.0,0.0,96,0.00,,,0.02,Wunderground v.1.15,2013-10-12 22:55:00,
2013-10-12 18:57:00,65.8,64.6,30.00,NW,321,0.0,0.0,96,0.00,,,0.02,Wunderground v.1.15,2013-10-12 22:57:00,
2013-10-12 18:58:00,65.8,64.6,30.00,NW,321,0.0,0.0,96,0.00,,,0.02,Wunderground v.1.15,2013-10-12 22:58:00,
2013-10-12 18:59:00,65.8,64.6,30.00,NW,321,0.0,0.0,96,0.00,,,0.02,Wunderground v.1.15,2013-10-12 22:59:00,
2013-10-12 19:01:00,65.8,64.6,30.00,NW,321,0.0,0.0,96,0.00,,,0.02,Wunderground v.1.15,2013-10-12 23:01:00,
2013-10-12 19:02:00,65.8,64.6,30.00,NW,321,0.0,0.0,96,0.00,,,0.02,Wunderground v.1.15,2013-10-12 23:02:00,
2013-10-12 19:04:00,65.8,64.6,30.00,NW,321,0.0,0.0,96,0.00,,,0.02,Wunderground v.1.15,2013-10-12 23:04:00,
2013-10-12 19:05:00,65.8,64.9,30.00,NW,321,0.0,0.0,97,0.00,,,0.02,Wunderground v.1.15,2013-10-12 23:05:00,
2013-10-12 19:06:00,65.8,64.9,30.00,NW,321,0.0,0.0,97,0.00,,,0.02,Wunderground v.1.15,2013-10-12 23:06:00,
2013-10-12 19:08:00,65.8,64.9,30.00,NW,321,0.0,0.0,97,0.00,,,0.02,Wunderground v.1.15,2013-10-12 23:08:00,
2013-10-12 19:09:00,65.8,64.9,30.00,SW,218,0.0,1.0,97,0.00,,,0.02,Wunderground v.1.15,2013-10-12 23:09:00,
2013-10-12 19:10:00,65.8,64.9,30.00,SSE,152,0.0,0.0,97,0.00,,,0.02,Wunderground v.1.15,2013-10-12 23:10:00,
2013-10-12 19:11:00,65.8,64.9,30.00,SE,134,0.0,1.0,97,0.00,,,0.02,Wunderground v.1.15,2013-10-12 23:11:00,
2013-10-12 19:12:00,65.8,64.9,30.00,SE,134,0.0,1.0,97,0.00,,,0.02,Wunderground v.1.15,2013-10-12 23:12:00,
2013-10-12 19:13:00,65.8,64.9,30.00,SE,134,0.0,1.0,97,0.00,,,0.02,Wunderground v.1.15,2013-10-12 23:13:00,
2013-10-12 19:14:00,65.8,64.9,30.00,SE,134,0.0,1.0,97,0.00,,,0.02,Wunderground v.1.15,2013-10-12 23:14:00,
2013-10-12 19:15:00,65.8,64.9,30.00,SE,134,0.0,1.0,97,0.00,,,0.02,Wunderground v.1.15,2013-10-12 23:15:00,
2013-10-12 19:17:00,65.8,64.9,30.00,SE,134,0.0,1.0,97,0.00,,,0.02,Wunderground v.1.15,2013-10-12 23:17:00,
2013-10-12 19:18:00,65.8,64.9,30.00,NNW,344,1.0,1.0,97,0.00,,,0.02,Wunderground v.1.15,2013-10-12 23:18:00,
2013-10-12 19:19:00,65.8,64.9,30.00,NNW,347,0.0,1.0,97,0.00,,,0.02,Wunderground v.1.15,2013-10-12 23:19:00,
2013-10-12 19:20:00,65.8,64.9,30.00,North,349,0.0,0.0,97,0.00,,,0.02,Wunderground v.1.15,2013-10-12 23:20:00,
2013-10-12 19:22:00,65.7,64.8,30.00,North,349,0.0,0.0,97,0.00,,,0.02,Wunderground v.1.15,2013-10-12 23:22:00,
2013-10-12 19:23:00,65.7,64.8,30.00,North,349,0.0,0.0,97,0.00,,,0.02,Wunderground v.1.15,2013-10-12 23:23:00,
2013-10-12 19:24:00,65.7,64.8,30.00,North,349,0.0,0.0,97,0.00,,,0.02,Wunderground v.1.15,2013-10-12 23:24:00,
2013-10-12 19:25:00,65.7,64.8,30.00,North,349,0.0,0.0,97,0.00,,,0.02,Wunderground v.1.15,2013-10-12 23:25:00,
2013-10-12 19:27:00,65.7,64.8,30.00,NNW,348,0.0,0.0,97,0.00,,,0.02,Wunderground v.1.15,2013-10-12 23:27:00,
2013-10-12 19:28:00,65.7,64.8,30.00,NNW,347,0.0,0.0,97,0.00,,,0.02,Wunderground v.1.15,2013-10-12 23:28:00,
2013-10-12 19:30:00,65.6,64.7,30.00,North,349,0.0,0.0,97,0.00,,,0.02,Wunderground v.1.15,2013-10-12 23:30:00,
2013-10-12 19:31:00,65.6,64.7,30.00,North,349,0.0,0.0,97,0.00,,,0.02,Wunderground v.1.15,2013-10-12 23:31:00,
2013-10-12 19:32:00,65.6,64.7,30.00,North,349,0.0,0.0,97,0.00,,,0.02,Wunderground v.1.15,2013-10-12 23:32:00,
2013-10-12 19:33:00,65.6,64.7,30.00,North,349,0.0,0.0,97,0.00,,,0.02,Wunderground v.1.15,2013-10-12 23:33:00,
2013-10-12 19:35:00,65.6,64.7,30.00,NNW,348,0.0,0.0,97,0.00,,,0.02,Wunderground v.1.15,2013-10-12 23:35:00,
2013-10-12 19:37:00,65.6,64.7,30.00,North,349,0.0,1.0,97,0.00,,,0.02,Wunderground v.1.15,2013-10-12 23:37:00,
2013-10-12 19:38:00,65.6,64.7,30.00,North,349,0.0,1.0,97,0.00,,,0.02,Wunderground v.1.15,2013-10-12 23:38:00,
2013-10-12 19:39:00,65.5,64.6,30.00,North,349,0.0,1.0,97,0.00,,,0.02,Wunderground v.1.15,2013-10-12 23:39:00,
2013-10-12 19:40:00,65.5,64.6,30.00,NNW,348,0.0,0.0,97,0.00,,,0.02,Wunderground v.1.15,2013-10-12 23:40:00,
2013-10-12 19:42:00,65.5,64.6,30.01,North,349,0.0,0.0,97,0.00,,,0.02,Wunderground v.1.15,2013-10-12 23:42:00,
2013-10-12 19:43:00,65.5,64.6,30.01,NNW,348,0.0,0.0,97,0.00,,,0.02,Wunderground v.1.15,2013-10-12 23:43:00,
2013-10-12 19:44:00,65.5,64.6,30.01,North,349,0.0,0.0,97,0.00,,,0.02,Wunderground v.1.15,2013-10-12 23:44:00,
2013-10-12 19:45:00,65.5,64.6,30.01,NNW,347,0.0,1.0,97,0.00,,,0.02,Wunderground v.1.15,2013-10-12 23:45:00,
2013-10-12 19:46:00,65.5,64.6,30.01,NNW,347,0.0,1.0,97,0.00,,,0.02,Wunderground v.1.15,2013-10-12 23:46:00,
2013-10-12 19:48:00,65.5,64.6,30.01,NNW,347,0.0,1.0,97,0.00,,,0.02,Wunderground v.1.15,2013-10-12 23:48:00,
2013-10-12 19:49:00,65.5,64.6,30.01,NNW,347,0.0,1.0,97,0.00,,,0.02,Wunderground v.1.15,2013-10-12 23:49:00,
2013-10-12 19:50:00,65.5,64.6,30.01,NNW,347,0.0,0.0,97,0.00,,,0.02,Wunderground v.1.15,2013-10-12 23:50:00,
2013-10-12 19:51:00,65.5,64.6,30.01,NNW,347,0.0,0.0,97,0.00,,,0.02,Wunderground v.1.15,2013-10-12 23:51:00,
2013-10-12 19:53:00,65.5,64.6,30.01,NNW,347,0.0,0.0,97,0.00,,,0.02,Wunderground v.1.15,2013-10-12 23:53:00,
2013-10-12 19:54:00,65.5,64.6,30.01,NNW,347,0.0,0.0,97,0.00,,,0.02,Wunderground v.1.15,2013-10-12 23:54:00,
2013-10-12 19:56:00,65.4,64.5,30.01,NNW,347,0.0,0.0,97,0.00,,,0.02,Wunderground v.1.15,2013-10-12 23:56:00,
2013-10-12 19:58:00,65.4,64.5,30.01,NNW,347,0.0,1.0,97,0.00,,,0.02,Wunderground v.1.15,2013-10-12 23:58:00,
2013-10-12 19:59:00,65.4,64.5,30.01,NNW,347,0.0,1.0,97,0.00,,,0.02,Wunderground v.1.15,2013-10-12 23:59:00,
2013-10-12 20:01:00,65.4,64.5,30.01,NNW,347,0.0,0.0,97,0.00,,,0.02,Wunderground v.1.15,2013-10-13 00:01:00,
2013-10-12 20:02:00,65.4,64.5,30.01,NNW,347,0.0,0.0,97,0.00,,,0.02,Wunderground v.1.15,2013-10-13 00:02:00,
2013-10-12 20:03:00,65.4,64.5,30.01,NNW,347,0.0,0.0,97,0.00,,,0.02,Wunderground v.1.15,2013-10-13 00:03:00,
2013-10-12 20:04:00,65.4,64.5,30.01,NNW,347,0.0,0.0,97,0.00,,,0.02,Wunderground v.1.15,2013-10-13 00:04:00,
2013-10-12 20:06:00,65.4,64.5,30.01,NNW,347,0.0,1.0,97,0.00,,,0.02,Wunderground v.1.15,2013-10-13 00:06:00,
2013-10-12 20:07:00,65.4,64.5,30.01,NNW,347,0.0,1.0,97,0.00,,,0.02,Wunderground v.1.15,2013-10-13 00:07:00,
2013-10-12 20:08:00,65.4,64.5,30.01,NNW,347,0.0,1.0,97,0.00,,,0.02,Wunderground v.1.15,2013-10-13 00:08:00,
2013-10-12 20:09:00,65.4,64.5,30.01,NNW,347,0.0,1.0,97,0.00,,,0.02,Wunderground v.1.15,2013-10-13 00:09:00,
2013-10-12 20:11:00,65.4,64.5,30.01,NNW,347,0.0,0.0,97,0.00,,,0.02,Wunderground v.1.15,2013-10-13 00:11:00,
2013-10-12 20:12:00,65.4,64.5,30.01,North,8,1.0,1.0,97,0.00,,,0.02,Wunderground v.1.15,2013-10-13 00:12:00,
2013-10-12 20:13:00,65.3,64.4,30.01,North,8,0.0,1.0,97,0.00,,,0.02,Wunderground v.1.15,2013-10-13 00:13:00,
2013-10-12 20:14:00,65.4,64.5,30.01,North,8,0.0,1.0,97,0.00,,,0.02,Wunderground v.1.15,2013-10-13 00:14:00,
2013-10-12 20:15:00,65.3,64.4,30.01,North,7,0.0,1.0,97,0.00,,,0.02,Wunderground v.1.15,2013-10-13 00:15:00,
2013-10-12 20:16:00,65.3,64.4,30.01,North,8,0.0,1.0,97,0.00,,,0.02,Wunderground v.1.15,2013-10-13 00:16:00,
2013-10-12 20:17:00,65.3,64.4,30.01,North,8,0.0,1.0,97,0.00,,,0.02,Wunderground v.1.15,2013-10-13 00:17:00,
2013-10-12 20:18:00,65.3,64.4,30.01,North,7,0.0,1.0,97,0.00,,,0.02,Wunderground v.1.15,2013-10-13 00:18:00,
2013-10-12 20:19:00,65.3,64.4,30.01,North,7,0.0,1.0,97,0.00,,,0.02,Wunderground v.1.15,2013-10-13 00:19:00,
2013-10-12 20:20:00,65.3,64.4,30.01,North,7,0.0,0.0,97,0.00,,,0.02,Wunderground v.1.15,2013-10-13 00:20:00,
2013-10-12 20:21:00,65.3,64.4,30.01,NNW,343,0.0,2.0,97,0.00,,,0.02,Wunderground v.1.15,2013-10-13 00:21:00,
2013-10-12 20:23:00,65.2,64.3,30.01,North,353,0.0,3.0,97,0.00,,,0.02,Wunderground v.1.15,2013-10-13 00:23:00,
2013-10-12 20:24:00,65.2,64.3,30.01,North,352,0.0,3.0,97,0.00,,,0.02,Wunderground v.1.15,2013-10-13 00:24:00,
2013-10-12 20:25:00,65.2,64.3,30.01,North,353,0.0,3.0,97,0.00,,,0.02,Wunderground v.1.15,2013-10-13 00:25:00,
2013-10-12 20:26:00,65.2,64.3,30.01,North,353,0.0,3.0,97,0.00,,,0.02,Wunderground v.1.15,2013-10-13 00:26:00,
2013-10-12 20:27:00,65.2,64.3,30.01,North,353,0.0,3.0,97,0.00,,,0.02,Wunderground v.1.15,2013-10-13 00:27:00,
2013-10-12 20:28:00,65.2,64.3,30.01,North,352,0.0,3.0,97,0.00,,,0.02,Wunderground v.1.15,2013-10-13 00:28:00,
2013-10-12 20:30:00,65.2,64.3,30.01,North,352,0.0,0.0,97,0.00,,,0.02,Wunderground v.1.15,2013-10-13 00:30:00,
2013-10-12 20:31:00,65.2,64.3,30.01,North,352,0.0,1.0,97,0.00,,,0.02,Wunderground v.1.15,2013-10-13 00:31:00,
2013-10-12 20:32:00,65.2,64.3,30.01,North,353,0.0,1.0,97,0.00,,,0.02,Wunderground v.1.15,2013-10-13 00:32:00,
2013-10-12 20:33:00,65.1,64.2,30.01,NNW,342,2.0,2.0,97,0.00,,,0.02,Wunderground v.1.15,2013-10-13 00:33:00,
2013-10-12 20:34:00,65.1,64.2,30.01,NNW,346,1.0,2.0,97,0.00,,,0.02,Wunderground v.1.15,2013-10-13 00:34:00,
2013-10-12 20:36:00,65.1,64.2,30.01,NW,321,0.0,2.0,97,0.00,,,0.02,Wunderground v.1.15,2013-10-13 00:36:00,
2013-10-12 20:37:00,65.1,64.2,30.01,NNW,347,0.0,2.0,97,0.00,,,0.02,Wunderground v.1.15,2013-10-13 00:37:00,
2013-10-12 20:38:00,65.1,64.2,30.01,NNW,347,1.0,2.0,97,0.00,,,0.02,Wunderground v.1.15,2013-10-13 00:38:00,
2013-10-12 20:39:00,65.1,64.2,30.01,NNE,23,1.0,2.0,97,0.00,,,0.02,Wunderground v.1.15,2013-10-13 00:39:00,
2013-10-12 20:41:00,65.1,64.2,30.01,NNE,25,0.0,0.0,97,0.00,,,0.02,Wunderground v.1.15,2013-10-13 00:41:00,
2013-10-12 20:42:00,65.1,64.2,30.01,NNE,25,0.0,0.0,97,0.00,,,0.02,Wunderground v.1.15,2013-10-13 00:42:00,
2013-10-12 20:44:00,65.0,64.1,30.01,NNE,25,0.0,0.0,97,0.00,,,0.02,Wunderground v.1.15,2013-10-13 00:44:00,
2013-10-12 20:46:00,65.0,64.1,30.01,NNE,24,0.0,1.0,97,0.00,,,0.02,Wunderground v.1.15,2013-10-13 00:46:00,
2013-10-12 20:47:00,65.0,64.1,30.01,NNE,25,0.0,1.0,97,0.00,,,0.02,Wunderground v.1.15,2013-10-13 00:47:00,
2013-10-12 20:49:00,65.0,64.1,30.02,NNW,332,0.0,1.0,97,0.00,,,0.02,Wunderground v.1.15,2013-10-13 00:49:00,
2013-10-12 20:51:00,65.0,64.1,30.02,NNW,332,0.0,0.0,97,0.00,,,0.02,Wunderground v.1.15,2013-10-13 00:51:00,
2013-10-12 20:52:00,65.0,64.1,30.02,NNW,332,0.0,0.0,97,0.00,,,0.02,Wunderground v.1.15,2013-10-13 00:52:00,
2013-10-12 20:55:00,65.0,64.1,30.02,NNW,332,0.0,1.0,97,0.00,,,0.02,Wunderground v.1.15,2013-10-13 00:55:00,
2013-10-12 20:57:00,65.0,64.1,30.02,NNW,332,0.0,1.0,97,0.00,,,0.02,Wunderground v.1.15,2013-10-13 00:57:00,
2013-10-12 21:00:00,65.0,64.1,30.02,NNW,338,0.0,1.0,97,0.00,,,0.02,Wunderground v.1.15,2013-10-13 01:00:00,
2013-10-12 21:02:00,65.0,64.1,30.02,NNW,338,0.0,0.0,97,0.00,,,0.02,Wunderground v.1.15,2013-10-13 01:02:00,
2013-10-12 21:03:00,65.0,64.1,30.02,NNW,337,0.0,0.0,97,0.00,,,0.02,Wunderground v.1.15,2013-10-13 01:03:00,
2013-10-12 21:05:00,65.0,64.1,30.02,NNW,338,0.0,0.0,97,0.00,,,0.02,Wunderground v.1.15,2013-10-13 01:05:00,
2013-10-12 21:07:00,65.0,64.1,30.02,NNW,338,0.0,0.0,97,0.00,,,0.02,Wunderground v.1.15,2013-10-13 01:07:00,
2013-10-12 21:08:00,65.0,64.1,30.02,NNW,338,0.0,0.0,97,0.00,,,0.02,Wunderground v.1.15,2013-10-13 01:08:00,
2013-10-12 21:10:00,65.0,64.1,30.02,NNW,338,0.0,0.0,97,0.00,,,0.02,Wunderground v.1.15,2013-10-13 01:10:00,
2013-10-12 21:12:00,65.0,64.1,30.02,NNW,336,0.0,1.0,97,0.00,,,0.02,Wunderground v.1.15,2013-10-13 01:12:00,
2013-10-12 21:13:00,65.0,64.1,30.02,NNW,336,0.0,1.0,97,0.00,,,0.02,Wunderground v.1.15,2013-10-13 01:13:00,
2013-10-12 21:15:00,65.0,64.1,30.02,NNW,338,0.0,1.0,97,0.00,,,0.02,Wunderground v.1.15,2013-10-13 01:15:00,
2013-10-12 21:16:00,65.0,64.1,30.02,NNW,338,1.0,1.0,97,0.00,,,0.02,Wunderground v.1.15,2013-10-13 01:16:00,
2013-10-12 21:17:00,65.0,64.1,30.02,North,352,0.0,2.0,97,0.00,,,0.02,Wunderground v.1.15,2013-10-13 01:17:00,
2013-10-12 21:18:00,65.0,64.1,30.02,North,352,0.0,2.0,97,0.00,,,0.02,Wunderground v.1.15,2013-10-13 01:18:00,
2013-10-12 21:19:00,65.0,64.1,30.02,North,353,1.0,2.0,97,0.00,,,0.02,Wunderground v.1.15,2013-10-13 01:19:00,
2013-10-12 21:20:00,65.0,64.1,30.02,North,353,0.0,0.0,97,0.00,,,0.02,Wunderground v.1.15,2013-10-13 01:20:00,
2013-10-12 21:21:00,65.0,64.1,30.02,North,353,0.0,1.0,97,0.00,,,0.02,Wunderground v.1.15,2013-10-13 01:21:00,
2013-10-12 21:23:00,65.0,64.1,30.02,North,352,0.0,1.0,97,0.00,,,0.02,Wunderground v.1.15,2013-10-13 01:23:00,
2013-10-12 21:24:00,65.0,64.1,30.02,North,353,2.0,3.0,97,0.00,,,0.02,Wunderground v.1.15,2013-10-13 01:24:00,
2013-10-12 21:25:00,65.0,64.1,30.02,NNW,332,0.0,3.0,97,0.00,,,0.02,Wunderground v.1.15,2013-10-13 01:25:00,
2013-10-12 21:26:00,65.0,64.1,30.02,North,4,1.0,3.0,97,0.00,,,0.02,Wunderground v.1.15,2013-10-13 01:26:00,
2013-10-12 21:28:00,65.0,64.1,30.02,North,4,0.0,3.0,97,0.00,,,0.02,Wunderground v.1.15,2013-10-13 01:28:00,
2013-10-12 21:29:00,65.0,64.1,30.02,North,4,0.0,3.0,97,0.00,,,0.02,Wunderground v.1.15,2013-10-13 01:29:00,
2013-10-12 21:30:00,64.9,64.0,30.02,North,4,0.0,1.0,97,0.00,,,0.02,Wunderground v.1.15,2013-10-13 01:30:00,
2013-10-12 21:31:00,64.9,64.0,30.02,North,3,0.0,1.0,97,0.00,,,0.02,Wunderground v.1.15,2013-10-13 01:31:00,
2013-10-12 21:34:00,64.9,64.0,30.02,North,4,0.0,1.0,97,0.00,,,0.02,Wunderground v.1.15,2013-10-13 01:34:00,
2013-10-12 21:35:00,64.9,64.0,30.02,North,3,0.0,1.0,97,0.00,,,0.02,Wunderground v.1.15,2013-10-13 01:35:00,
2013-10-12 21:36:00,64.9,64.0,30.02,North,4,0.0,1.0,97,0.00,,,0.02,Wunderground v.1.15,2013-10-13 01:36:00,
2013-10-12 21:37:00,64.9,64.0,30.02,NW,319,2.0,2.0,97,0.00,,,0.02,Wunderground v.1.15,2013-10-13 01:37:00,
2013-10-12 21:39:00,64.9,64.0,30.02,East,94,1.0,2.0,97,0.00,,,0.02,Wunderground v.1.15,2013-10-13 01:39:00,
2013-10-12 21:40:00,64.9,64.0,30.02,North,350,3.0,3.0,97,0.00,,,0.02,Wunderground v.1.15,2013-10-13 01:40:00,
2013-10-12 21:41:00,64.9,64.0,30.02,WNW,288,1.0,3.0,97,0.00,,,0.02,Wunderground v.1.15,2013-10-13 01:41:00,
2013-10-12 21:42:00,64.9,64.0,30.02,East,94,0.0,3.0,97,0.00,,,0.02,Wunderground v.1.15,2013-10-13 01:42:00,
2013-10-12 21:44:00,64.9,64.0,30.02,East,94,1.0,3.0,97,0.00,,,0.02,Wunderground v.1.15,2013-10-13 01:44:00,
2013-10-12 21:45:00,64.9,64.0,30.02,NNW,330,3.0,3.0,97,0.00,,,0.02,Wunderground v.1.15,2013-10-13 01:45:00,
2013-10-12 21:46:00,64.8,63.6,30.02,North,7,0.0,3.0,96,0.00,,,0.02,Wunderground v.1.15,2013-10-13 01:46:00,
2013-10-12 21:47:00,64.8,63.6,30.02,North,8,1.0,3.0,96,0.00,,,0.02,Wunderground v.1.15,2013-10-13 01:47:00,
2013-10-12 21:49:00,64.7,63.5,30.03,NNE,18,1.0,3.0,96,0.00,,,0.02,Wunderground v.1.15,2013-10-13 01:49:00,
2013-10-12 21:50:00,64.7,63.5,30.03,North,355,0.0,1.0,96,0.00,,,0.02,Wunderground v.1.15,2013-10-13 01:50:00,
2013-10-12 21:52:00,64.7,63.5,30.03,North,353,1.0,2.0,96,0.00,,,0.02,Wunderground v.1.15,2013-10-13 01:52:00,
2013-10-12 21:53:00,64.7,63.5,30.03,ENE,61,1.0,3.0,96,0.00,,,0.02,Wunderground v.1.15,2013-10-13 01:53:00,
2013-10-12 21:54:00,64.7,63.5,30.03,NNE,22,1.0,3.0,96,0.00,,,0.02,Wunderground v.1.15,2013-10-13 01:54:00,
2013-10-12 21:55:00,64.7,63.5,30.03,NE,51,0.0,3.0,96,0.00,,,0.02,Wunderground v.1.15,2013-10-13 01:55:00,
2013-10-12 21:57:00,64.7,63.5,30.03,North,10,2.0,3.0,96,0.00,,,0.02,Wunderground v.1.15,2013-10-13 01:57:00,
2013-10-12 21:59:00,64.7,63.5,30.03,NNE,26,1.0,3.0,96,0.00,,,0.02,Wunderground v.1.15,2013-10-13 01:59:00,
2013-10-12 22:00:00,64.7,63.2,30.03,North,7,0.0,2.0,95,0.00,,,0.02,Wunderground v.1.15,2013-10-13 02:00:00,
2013-10-12 22:02:00,64.7,63.2,30.02,North,8,0.0,2.0,95,0.00,,,0.02,Wunderground v.1.15,2013-10-13 02:02:00,
2013-10-12 22:03:00,64.7,63.2,30.03,North,8,0.0,2.0,95,0.00,,,0.02,Wunderground v.1.15,2013-10-13 02:03:00,
2013-10-12 22:04:00,64.7,63.2,30.03,North,8,0.0,2.0,95,0.00,,,0.02,Wunderground v.1.15,2013-10-13 02:04:00,
2013-10-12 22:05:00,64.7,63.2,30.03,North,7,0.0,2.0,95,0.00,,,0.02,Wunderground v.1.15,2013-10-13 02:05:00,
2013-10-12 22:07:00,64.7,63.2,30.02,NNE,12,0.0,3.0,95,0.00,,,0.02,Wunderground v.1.15,2013-10-13 02:07:00,
2013-10-12 22:09:00,64.7,63.2,30.02,NNE,12,0.0,3.0,95,0.00,,,0.02,Wunderground v.1.15,2013-10-13 02:09:00,
2013-10-12 22:10:00,64.7,63.2,30.03,NNE,12,0.0,0.0,95,0.00,,,0.02,Wunderground v.1.15,2013-10-13 02:10:00,
2013-10-12 22:12:00,64.7,63.2,30.03,NNE,12,0.0,1.0,95,0.00,,,0.02,Wunderground v.1.15,2013-10-13 02:12:00,
2013-10-12 22:14:00,64.7,63.2,30.02,NNE,12,0.0,1.0,95,0.00,,,0.02,Wunderground v.1.15,2013-10-13 02:14:00,
2013-10-12 22:15:00,64.7,63.2,30.02,NNE,13,1.0,1.0,95,0.00,,,0.02,Wunderground v.1.15,2013-10-13 02:15:00,
2013-10-12 22:18:00,64.7,63.2,30.03,NNE,12,0.0,1.0,95,0.00,,,0.02,Wunderground v.1.15,2013-10-13 02:18:00,
2013-10-12 22:19:00,64.7,63.2,30.03,NNE,12,0.0,1.0,95,0.00,,,0.02,Wunderground v.1.15,2013-10-13 02:19:00,
2013-10-12 22:20:00,64.7,63.2,30.03,NNE,12,0.0,0.0,95,0.00,,,0.02,Wunderground v.1.15,2013-10-13 02:20:00,
2013-10-12 22:24:00,64.7,63.2,30.03,NNE,12,0.0,1.0,95,0.00,,,0.02,Wunderground v.1.15,2013-10-13 02:24:00,
2013-10-12 22:25:00,64.7,63.2,30.03,North,6,0.0,1.0,95,0.00,,,0.02,Wunderground v.1.15,2013-10-13 02:25:00,
2013-10-12 22:29:00,64.6,63.1,30.03,North,355,0.0,1.0,95,0.00,,,0.02,Wunderground v.1.15,2013-10-13 02:29:00,
2013-10-12 22:30:00,64.6,63.1,30.03,North,355,0.0,0.0,95,0.00,,,0.02,Wunderground v.1.15,2013-10-13 02:30:00,
2013-10-12 22:31:00,64.6,63.1,30.03,North,355,0.0,0.0,95,0.00,,,0.02,Wunderground v.1.15,2013-10-13 02:31:00,
2013-10-12 22:34:00,64.6,63.1,30.03,NW,316,0.0,1.0,95,0.00,,,0.02,Wunderground v.1.15,2013-10-13 02:34:00,
2013-10-12 22:35:00,64.6,63.1,30.03,NW,316,0.0,1.0,95,0.00,,,0.02,Wunderground v.1.15,2013-10-13 02:35:00,
2013-10-12 22:36:00,64.6,63.1,30.03,NW,316,0.0,1.0,95,0.00,,,0.02,Wunderground v.1.15,2013-10-13 02:36:00,
2013-10-12 22:39:00,64.6,63.1,30.03,NW,316,0.0,1.0,95,0.00,,,0.02,Wunderground v.1.15,2013-10-13 02:39:00,
2013-10-12 22:41:00,64.6,63.1,30.03,NW,316,0.0,0.0,95,0.00,,,0.02,Wunderground v.1.15,2013-10-13 02:41:00,
2013-10-12 22:42:00,64.6,63.1,30.03,NW,316,0.0,0.0,95,0.00,,,0.02,Wunderground v.1.15,2013-10-13 02:42:00,
2013-10-12 22:44:00,64.6,63.1,30.03,West,264,0.0,0.0,95,0.00,,,0.02,Wunderground v.1.15,2013-10-13 02:44:00,
2013-10-12 22:46:00,64.6,63.1,30.03,West,264,0.0,0.0,95,0.00,,,0.02,Wunderground v.1.15,2013-10-13 02:46:00,
2013-10-12 22:47:00,64.6,63.1,30.03,West,264,0.0,0.0,95,0.00,,,0.02,Wunderground v.1.15,2013-10-13 02:47:00,
2013-10-12 22:50:00,64.6,63.1,30.03,NW,322,0.0,0.0,95,0.00,,,0.02,Wunderground v.1.15,2013-10-13 02:50:00,
2013-10-12 22:51:00,64.6,63.1,30.03,NNW,328,0.0,4.0,95,0.00,,,0.02,Wunderground v.1.15,2013-10-13 02:51:00,
2013-10-12 22:52:00,64.6,63.1,30.03,NNW,329,0.0,4.0,95,0.00,,,0.02,Wunderground v.1.15,2013-10-13 02:52:00,
2013-10-12 22:55:00,64.6,63.1,30.03,NNW,329,0.0,4.0,95,0.00,,,0.02,Wunderground v.1.15,2013-10-13 02:55:00,
2013-10-12 22:56:00,64.6,63.1,30.03,NNW,328,0.0,4.0,95,0.00,,,0.02,Wunderground v.1.15,2013-10-13 02:56:00,
2013-10-12 22:57:00,64.6,63.1,30.03,NNW,347,1.0,4.0,95,0.00,,,0.02,Wunderground v.1.15,2013-10-13 02:57:00,
2013-10-12 23:00:00,64.5,63.0,30.03,NW,322,1.0,1.0,95,0.00,,,0.02,Wunderground v.1.15,2013-10-13 03:00:00,
2013-10-12 23:01:00,64.5,63.0,30.03,NW,321,0.0,1.0,95,0.00,,,0.02,Wunderground v.1.15,2013-10-13 03:01:00,
2013-10-12 23:02:00,64.5,63.0,30.03,NNW,338,1.0,1.0,95,0.00,,,0.02,Wunderground v.1.15,2013-10-13 03:02:00,
2013-10-12 23:05:00,64.5,63.0,30.03,North,352,1.0,2.0,95,0.00,,,0.02,Wunderground v.1.15,2013-10-13 03:05:00,
2013-10-12 23:06:00,64.5,63.0,30.03,North,353,0.0,2.0,95,0.00,,,0.02,Wunderground v.1.15,2013-10-13 03:06:00,
2013-10-12 23:07:00,64.5,63.0,30.03,North,352,0.0,2.0,95,0.00,,,0.02,Wunderground v.1.15,2013-10-13 03:07:00,
2013-10-12 23:08:00,64.5,63.0,30.03,North,352,0.0,2.0,95,0.00,,,0.02,Wunderground v.1.15,2013-10-13 03:08:00,
2013-10-12 23:11:00,64.5,63.0,30.03,North,352,0.0,1.0,95,0.00,,,0.02,Wunderground v.1.15,2013-10-13 03:11:00,
2013-10-12 23:12:00,64.4,62.9,30.03,North,11,0.0,3.0,95,0.00,,,0.02,Wunderground v.1.15,2013-10-13 03:12:00,
2013-10-12 23:13:00,64.4,62.9,30.03,North,11,1.0,3.0,95,0.00,,,0.02,Wunderground v.1.15,2013-10-13 03:13:00,
2013-10-12 23:16:00,64.4,62.9,30.03,North,7,0.0,3.0,95,0.00,,,0.02,Wunderground v.1.15,2013-10-13 03:16:00,
2013-10-12 23:17:00,64.4,62.9,30.03,North,6,0.0,3.0,95,0.00,,,0.02,Wunderground v.1.15,2013-10-13 03:17:00,
2013-10-12 23:18:00,64.4,62.9,30.03,North,6,0.0,3.0,95,0.00,,,0.02,Wunderground v.1.15,2013-10-13 03:18:00,
2013-10-12 23:21:00,64.3,62.8,30.03,North,5,1.0,1.0,95,0.00,,,0.02,Wunderground v.1.15,2013-10-13 03:21:00,
2013-10-12 23:22:00,64.3,62.8,30.03,North,5,1.0,1.0,95,0.00,,,0.02,Wunderground v.1.15,2013-10-13 03:22:00,
2013-10-12 23:23:00,64.3,62.8,30.03,North,5,1.0,1.0,95,0.00,,,0.02,Wunderground v.1.15,2013-10-13 03:23:00,
2013-10-12 23:26:00,64.3,62.8,30.03,NW,325,0.0,2.0,95,0.00,,,0.02,Wunderground v.1.15,2013-10-13 03:26:00,
2013-10-12 23:27:00,64.3,62.8,30.03,NW,325,0.0,2.0,95,0.00,,,0.02,Wunderground v.1.15,2013-10-13 03:27:00,
2013-10-12 23:28:00,64.3,62.8,30.03,NW,325,1.0,2.0,95,0.00,,,0.02,Wunderground v.1.15,2013-10-13 03:28:00,
2013-10-12 23:32:00,64.2,62.7,30.03,North,358,1.0,1.0,95,0.00,,,0.02,Wunderground v.1.15,2013-10-13 03:32:00,
2013-10-12 23:33:00,64.2,62.7,30.03,NE,37,2.0,2.0,95,0.00,,,0.02,Wunderground v.1.15,2013-10-13 03:33:00,
2013-10-12 23:34:00,64.3,62.8,30.03,North,349,2.0,2.0,95,0.00,,,0.02,Wunderground v.1.15,2013-10-13 03:34:00,
2013-10-12 23:37:00,64.2,62.7,30.03,NNW,335,1.0,2.0,95,0.00,,,0.02,Wunderground v.1.15,2013-10-13 03:37:00,
2013-10-12 23:38:00,64.2,62.7,30.03,NNW,335,0.0,2.0,95,0.00,,,0.02,Wunderground v.1.15,2013-10-13 03:38:00,
2013-10-12 23:39:00,64.2,62.7,30.03,NNW,335,0.0,2.0,95,0.00,,,0.02,Wunderground v.1.15,2013-10-13 03:39:00,
2013-10-12 23:42:00,64.2,62.7,30.03,NW,317,0.0,1.0,95,0.00,,,0.02,Wunderground v.1.15,2013-10-13 03:42:00,
2013-10-12 23:43:00,64.2,62.7,30.03,NW,318,0.0,1.0,95,0.00,,,0.02,Wunderground v.1.15,2013-10-13 03:43:00,
2013-10-12 23:44:00,64.2,62.7,30.03,NNW,329,1.0,1.0,95,0.00,,,0.02,Wunderground v.1.15,2013-10-13 03:44:00,
2013-10-12 23:45:00,64.2,62.7,30.03,NNW,329,0.0,1.0,95,0.00,,,0.02,Wunderground v.1.15,2013-10-13 03:45:00,
2013-10-12 23:47:00,64.2,62.7,30.03,ENE,64,0.0,1.0,95,0.00,,,0.02,Wunderground v.1.15,2013-10-13 03:47:00,
2013-10-12 23:48:00,64.2,62.7,30.03,ENE,64,0.0,1.0,95,0.00,,,0.02,Wunderground v.1.15,2013-10-13 03:48:00,
2013-10-12 23:49:00,64.2,62.7,30.03,NE,50,0.0,1.0,95,0.00,,,0.02,Wunderground v.1.15,2013-10-13 03:49:00,
2013-10-12 23:50:00,64.2,62.7,30.03,North,352,1.0,1.0,95,0.00,,,0.02,Wunderground v.1.15,2013-10-13 03:50:00,
2013-10-12 23:52:00,64.1,62.6,30.03,North,355,0.0,4.0,95,0.00,,,0.02,Wunderground v.1.15,2013-10-13 03:52:00,
2013-10-12 23:53:00,64.1,62.6,30.03,North,355,0.0,4.0,95,0.00,,,0.02,Wunderground v.1.15,2013-10-13 03:53:00,
2013-10-12 23:54:00,64.1,62.6,30.03,NNW,345,4.0,4.0,95,0.00,,,0.02,Wunderground v.1.15,2013-10-13 03:54:00,
2013-10-12 23:55:00,64.1,62.6,30.03,NNW,332,0.0,4.0,95,0.00,,,0.02,Wunderground v.1.15,2013-10-13 03:55:00,
2013-10-12 23:57:00,64.1,62.6,30.03,NNW,335,1.0,4.0,95,0.00,,,0.02,Wunderground v.1.15,2013-10-13 03:57:00,
2013-10-12 23:58:00,64.1,62.6,30.03,NNW,334,0.0,4.0,95,0.00,,,0.02,Wunderground v.1.15,2013-10-13 03:58:00,
2013-10-12 23:59:00,64.1,62.6,30.03,NNW,334,1.0,4.0,95,0.00,,,0.02,Wunderground v.1.15,2013-10-13 03:59:00,